M I D A S
Marine Information and Data Acquisition System
Tripno 741 of the Zeeleeuw from 2004-06-29 06:20:40 to 2004-06-29 11:54:46
Back to CruiseResearch ActivitiesStationsMapUnderway DataData graphs

EquipmentUnitsComment
TimeDGPSUTC
LatitudeDGPSDM.mWGS84
LongitudeDGPSDM.mWGS84
TemperatureSBE03/SBE38deg celciusITS90
ConductivitySBE21S/mITS90
SalinitySBE21 Practical Salinity Units
ChlorophylAChelsea fluorimeterg/lCalibrated in Aceton
Missing or incorrect values are displayed as -999
Sea surface data collected by the RV Zeeleeuw from 2004-06-29 06:20:40 to 2004-06-29 11:54:46
                                                                                    Next 1000 lines
Time Latitude Longitude Temperature Conductivity Salinity ChlorophylA
2004-06-29 06:20:46 51°13.597 2°56.098 20.948154 0.024196 0.124767 6.769657
2004-06-29 06:20:50 51°13.597 2°56.097 20.949991 0.024196 0.124767 6.769657
2004-06-29 06:20:55 51°13.597 2°56.097 20.956218 0.024196 0.124769 6.769657
2004-06-29 06:21:01 51°13.597 2°56.097 20.956218 0.024196 0.124769 6.769657
2004-06-29 06:21:06 51°13.596 2°56.097 20.957097 0.024196 0.12477 6.769657
2004-06-29 06:21:10 51°13.596 2°56.097 20.948553 0.024196 0.124772 6.769657
2004-06-29 06:21:16 51°13.596 2°56.096 20.913091 0.024196 0.124774 6.769657
2004-06-29 06:21:21 51°13.596 2°56.094 20.951987 0.024196 0.124774 6.769657
2004-06-29 06:21:26 51°13.597 2°56.092 20.941007 0.024092 0.124247 6.769657
2004-06-29 06:21:30 51°13.597 2°56.089 20.941007 0.024092 0.124247 6.769657
2004-06-29 06:21:37 51°13.599 2°56.084 20.93941 0.024092 0.124249 6.769657
2004-06-29 06:21:42 51°13.599 2°56.079 20.942285 0.024196 0.124779 6.769657
2004-06-29 06:21:46 51°13.6 2°56.076 20.951667 0.024196 0.124779 6.769657
2004-06-29 06:21:52 51°13.602 2°56.069 20.940248 0.024092 0.124252 6.769657
2004-06-29 06:21:57 51°13.604 2°56.064 20.910575 0.024092 0.124252 6.769657
2004-06-29 06:22:01 51°13.606 2°56.059 20.910575 0.024092 0.124252 6.769657
2004-06-29 06:22:06 51°13.608 2°56.052 20.9452 0.024196 0.124782 6.769657
2004-06-29 06:22:12 51°13.611 2°56.044 20.947795 0.024196 0.124784 6.769657
2004-06-29 06:22:17 51°13.613 2°56.037 20.932542 0.024196 0.124784 6.769657
2004-06-29 06:22:22 51°13.616 2°56.03 20.947396 0.024092 0.124257 6.769657
2004-06-29 06:22:27 51°13.619 2°56.023 20.948114 0.024196 0.124786 6.769657
2004-06-29 06:22:32 51°13.622 2°56.015 20.948114 0.024196 0.124786 6.769657
2004-06-29 06:22:37 51°13.625 2°56.007 20.948034 0.024196 0.124786 6.769657
2004-06-29 06:22:42 51°13.629 2°55.999 20.94472 0.024092 0.124259 6.769657
2004-06-29 06:22:47 51°13.632 2°55.991 20.950749 0.024196 0.124789 6.769657
2004-06-29 06:22:52 51°13.636 2°55.983 20.949472 0.024196 0.124789 6.735947
2004-06-29 06:22:57 51°13.639 2°55.975 20.949392 0.024196 0.124791 6.769657
2004-06-29 06:23:02 51°13.643 2°55.966 20.949392 0.024196 0.124791 6.769657
2004-06-29 06:23:06 51°13.646 2°55.959 20.953224 0.024092 0.124264 6.769657
2004-06-29 06:23:12 51°13.651 2°55.949 20.947875 0.024196 0.124793 6.735947
2004-06-29 06:23:17 51°13.655 2°55.94 20.957815 0.024092 0.124268 6.769657
2004-06-29 06:23:22 51°13.659 2°55.931 20.950909 0.024092 0.124268 6.735947
2004-06-29 06:23:26 51°13.662 2°55.924 20.950709 0.024092 0.124266 6.769657
2004-06-29 06:23:32 51°13.666 2°55.914 20.950709 0.024092 0.124266 6.769657
2004-06-29 06:23:37 51°13.67 2°55.905 20.948553 0.024092 0.124268 6.769657
2004-06-29 06:23:42 51°13.674 2°55.897 20.957456 0.024092 0.124269 6.769657
2004-06-29 06:23:47 51°13.678 2°55.888 20.948793 0.024196 0.124798 6.769657
2004-06-29 06:23:52 51°13.682 2°55.879 20.9553 0.024196 0.124799 6.735947
2004-06-29 06:23:57 51°13.686 2°55.871 20.962326 0.024196 0.124801 6.769657
2004-06-29 06:24:02 51°13.691 2°55.862 20.962326 0.024196 0.124801 6.769657
2004-06-29 06:24:06 51°13.694 2°55.855 20.95562 0.024092 0.124273 6.735947
2004-06-29 06:24:12 51°13.699 2°55.845 20.959731 0.024196 0.124803 6.769657
2004-06-29 06:24:17 51°13.704 2°55.836 20.967276 0.024092 0.124276 6.769657
2004-06-29 06:24:22 51°13.709 2°55.828 20.96532 0.024092 0.124275 6.769657
2004-06-29 06:24:26 51°13.713 2°55.821 20.959053 0.024092 0.124278 6.735947
2004-06-29 06:24:32 51°13.719 2°55.81 20.959053 0.024092 0.124278 6.735947
2004-06-29 06:24:37 51°13.723 2°55.801 20.948753 0.024092 0.12428 6.769657
2004-06-29 06:24:42 51°13.728 2°55.792 20.95031 0.024092 0.124281 6.769657
2004-06-29 06:24:46 51°13.732 2°55.785 20.961647 0.024092 0.12428 6.769657
2004-06-29 06:24:52 51°13.738 2°55.775 20.945878 0.024092 0.124281 6.769657
2004-06-29 06:24:57 51°13.743 2°55.766 20.949232 0.024196 0.124811 6.769657
2004-06-29 06:25:02 51°13.748 2°55.757 20.949232 0.024196 0.124811 6.769657
2004-06-29 06:25:06 51°13.752 2°55.75 20.947196 0.024092 0.124285 6.769657
2004-06-29 06:25:12 51°13.757 2°55.739 20.966916 0.024092 0.124285 6.769657
2004-06-29 06:25:17 51°13.762 2°55.73 20.974779 0.024092 0.124286 6.769657
2004-06-29 06:25:22 51°13.767 2°55.722 20.965519 0.024092 0.124286 6.769657
2004-06-29 06:25:26 51°13.771 2°55.715 20.96544 0.024092 0.124288 6.769657
2004-06-29 06:25:32 51°13.778 2°55.705 20.96544 0.024092 0.124288 6.769657
2004-06-29 06:25:37 51°13.783 2°55.697 20.953344 0.024092 0.124286 6.769657
2004-06-29 06:25:42 51°13.789 2°55.689 20.993335 0.024092 0.12429 6.735947
2004-06-29 06:25:47 51°13.794 2°55.682 20.965679 0.024092 0.124292 6.769657
2004-06-29 06:25:52 51°13.8 2°55.674 20.984078 0.024092 0.124292 6.769657
2004-06-29 06:25:57 51°13.807 2°55.667 20.988148 0.024092 0.124295 6.769657
2004-06-29 06:26:02 51°13.813 2°55.661 20.988148 0.024092 0.124295 6.769657
2004-06-29 06:26:06 51°13.818 2°55.656 20.980965 0.024092 0.124295 6.769657
2004-06-29 06:26:12 51°13.826 2°55.649 20.957735 0.024092 0.124293 6.769657
2004-06-29 06:26:17 51°13.833 2°55.643 20.984676 0.024092 0.124297 6.803366
2004-06-29 06:26:22 51°13.84 2°55.638 20.978052 0.024092 0.124297 6.769657
2004-06-29 06:26:27 51°13.847 2°55.633 20.961847 0.024092 0.124298 6.769657
2004-06-29 06:26:32 51°13.853 2°55.629 20.961847 0.024092 0.124298 6.769657
2004-06-29 06:26:37 51°13.86 2°55.625 20.991779 0.024092 0.124298 6.735947
2004-06-29 06:26:42 51°13.867 2°55.622 20.973941 0.024092 0.124298 6.769657
2004-06-29 06:26:47 51°13.874 2°55.619 20.962286 0.024196 0.12483 6.769657
2004-06-29 06:26:52 51°13.881 2°55.617 20.975817 0.024092 0.124304 6.769657
2004-06-29 06:26:57 51°13.889 2°55.616 20.952825 0.024092 0.124304 6.735947
2004-06-29 06:27:02 51°13.896 2°55.616 20.952825 0.024092 0.124304 6.735947
2004-06-29 06:27:06 51°13.902 2°55.616 20.965599 0.024092 0.124304 6.769657
2004-06-29 06:27:12 51°13.91 2°55.616 20.965919 0.024092 0.124305 6.769657
2004-06-29 06:27:17 51°13.917 2°55.617 20.966238 0.024092 0.124307 6.735947
2004-06-29 06:27:22 51°13.925 2°55.618 20.970309 0.024092 0.124307 6.769657
2004-06-29 06:27:27 51°13.932 2°55.62 20.97454 0.024092 0.12431 6.769657
2004-06-29 06:27:32 51°13.939 2°55.622 20.97454 0.024092 0.12431 6.769657
2004-06-29 06:27:37 51°13.946 2°55.625 20.980406 0.024092 0.124312 6.769657
2004-06-29 06:27:42 51°13.952 2°55.627 20.994173 0.024092 0.12431 6.769657
2004-06-29 06:27:46 51°13.956 2°55.63 20.996846 0.024092 0.124312 6.769657
2004-06-29 06:27:52 51°13.962 2°55.633 21.003628 0.024196 0.124841 6.769657
2004-06-29 06:27:56 51°13.965 2°55.634 20.995769 0.024092 0.124314 6.769657
2004-06-29 06:28:01 51°13.966 2°55.635 20.995769 0.024092 0.124314 6.769657
2004-06-29 06:28:06 51°13.966 2°55.634 21.016553 0.024092 0.124317 6.769657
2004-06-29 06:28:09 51°13.966 2°55.633 20.97889 0.024092 0.124315 6.769657
2004-06-29 06:28:16 51°13.964 2°55.628 20.93925 0.024092 0.124317 6.735947
2004-06-29 06:28:21 51°13.963 2°55.622 20.919123 0.024092 0.124317 6.735947
2004-06-29 06:28:26 51°13.962 2°55.614 20.846312 0.024092 0.124317 6.769657
2004-06-29 06:28:30 51°13.961 2°55.608 20.846312 0.024092 0.124317 6.769657
2004-06-29 06:28:37 51°13.962 2°55.595 20.904542 0.024092 0.124319 6.803366
2004-06-29 06:28:41 51°13.963 2°55.586 20.949711 0.024196 0.124847 6.769657
2004-06-29 06:28:46 51°13.965 2°55.576 20.88936 0.024092 0.124321 6.769657
2004-06-29 06:28:49 51°13.967 2°55.57 20.885244 0.024092 0.124319 6.803366
2004-06-29 06:28:56 51°13.973 2°55.556 20.941207 0.024092 0.124322 6.769657
2004-06-29 06:29:01 51°13.979 2°55.547 20.941207 0.024092 0.124322 6.769657
2004-06-29 06:29:05 51°13.983 2°55.539 21.062248 0.024092 0.124321 6.769657
2004-06-29 06:29:12 51°13.993 2°55.525 21.060335 0.024092 0.124322 6.735947
2004-06-29 06:29:16 51°14 2°55.517 21.029196 0.024092 0.124324 6.769657
2004-06-29 06:29:21 51°14.008 2°55.507 21.011567 0.024092 0.124326 6.769657
2004-06-29 06:29:26 51°14.017 2°55.497 20.998202 0.024092 0.124326 6.769657
2004-06-29 06:29:32 51°14.028 2°55.487 20.998202 0.024092 0.124326 6.769657
2004-06-29 06:29:36 51°14.036 2°55.48 20.976735 0.024092 0.124326 6.735947
2004-06-29 06:29:41 51°14.047 2°55.471 20.99142 0.024092 0.124329 6.769657
2004-06-29 06:29:46 51°14.057 2°55.463 20.983279 0.024092 0.124329 6.735947
2004-06-29 06:29:50 51°14.065 2°55.457 20.988666 0.024092 0.124331 6.769657
2004-06-29 06:29:56 51°14.078 2°55.448 21.004306 0.024092 0.124329 6.735947
2004-06-29 06:30:01 51°14.088 2°55.441 21.004306 0.024092 0.124329 6.735947
2004-06-29 06:30:06 51°14.099 2°55.434 21.001594 0.024092 0.124333 6.769657
2004-06-29 06:30:10 51°14.107 2°55.428 21.01759 0.024092 0.124333 6.769657
2004-06-29 06:30:16 51°14.12 2°55.418 21.026005 0.024092 0.124336 6.769657
2004-06-29 06:30:21 51°14.132 2°55.41 21.017311 0.024092 0.124334 6.769657
2004-06-29 06:30:26 51°14.143 2°55.401 21.016074 0.024092 0.124336 6.769657
2004-06-29 06:30:31 51°14.155 2°55.391 21.016074 0.024092 0.124336 6.769657
2004-06-29 06:30:36 51°14.167 2°55.381 21.002711 0.024092 0.124338 6.769657
2004-06-29 06:30:42 51°14.181 2°55.367 21.048694 0.024092 0.124338 6.769657
2004-06-29 06:30:47 51°14.192 2°55.353 21.033263 0.024092 0.124339 6.769657
2004-06-29 06:30:52 51°14.204 2°55.339 21.049133 0.024092 0.124339 6.769657
2004-06-29 06:30:57 51°14.215 2°55.324 20.984477 0.024092 0.124341 6.735947
2004-06-29 06:31:02 51°14.226 2°55.308 20.984477 0.024092 0.124341 6.735947
2004-06-29 06:31:07 51°14.238 2°55.293 20.979648 0.024092 0.124343 6.735947
2004-06-29 06:31:12 51°14.249 2°55.277 20.995529 0.024092 0.124344 6.769657
2004-06-29 06:31:17 51°14.259 2°55.26 20.984556 0.024092 0.124344 6.769657
2004-06-29 06:31:22 51°14.27 2°55.242 20.986592 0.024092 0.124346 6.769657
2004-06-29 06:31:27 51°14.28 2°55.224 20.991061 0.024092 0.124346 6.769657
2004-06-29 06:31:32 51°14.29 2°55.205 20.991061 0.024092 0.124346 6.769657
2004-06-29 06:31:37 51°14.3 2°55.187 20.968513 0.024092 0.124346 6.735947
2004-06-29 06:31:42 51°14.31 2°55.168 20.948154 0.024092 0.124346 6.769657
2004-06-29 06:31:47 51°14.321 2°55.149 20.979049 0.024092 0.12435 6.769657
2004-06-29 06:31:52 51°14.332 2°55.13 20.965559 0.024092 0.124348 6.769657
2004-06-29 06:31:57 51°14.343 2°55.111 20.953504 0.024092 0.124348 6.769657
2004-06-29 06:32:02 51°14.355 2°55.092 20.953504 0.024092 0.124348 6.769657
2004-06-29 06:32:07 51°14.367 2°55.074 20.92735 0.024092 0.12435 6.769657
2004-06-29 06:32:11 51°14.378 2°55.06 20.935656 0.024092 0.124351 6.769657
2004-06-29 06:32:17 51°14.394 2°55.039 20.992178 0.024092 0.124351 6.769657
2004-06-29 06:32:22 51°14.408 2°55.021 21.003947 0.024092 0.124351 6.769657
2004-06-29 06:32:27 51°14.422 2°55.003 21.012245 0.024092 0.124353 6.735947
2004-06-29 06:32:32 51°14.436 2°54.984 21.012245 0.024092 0.124353 6.735947
2004-06-29 06:32:37 51°14.45 2°54.966 20.994532 0.024092 0.124353 6.769657
2004-06-29 06:32:42 51°14.465 2°54.949 20.952985 0.024092 0.124355 6.735947
2004-06-29 06:32:47 51°14.48 2°54.932 20.95039 0.024092 0.124355 6.735947
2004-06-29 06:32:52 51°14.495 2°54.916 20.931064 0.024092 0.124355 6.769657
2004-06-29 06:32:57 51°14.511 2°54.902 21.005862 0.024092 0.124355 6.769657
2004-06-29 06:33:02 51°14.527 2°54.887 21.005862 0.024092 0.124355 6.769657
2004-06-29 06:33:06 51°14.539 2°54.875 21.011646 0.024092 0.124355 6.769657
2004-06-29 06:33:13 51°14.561 2°54.854 20.976894 0.024092 0.124356 6.803366
2004-06-29 06:33:17 51°14.574 2°54.842 20.926432 0.024092 0.124358 6.769657
2004-06-29 06:33:22 51°14.59 2°54.828 20.981643 0.024092 0.12436 6.769657
2004-06-29 06:33:27 51°14.607 2°54.815 20.963683 0.024092 0.124358 6.735947
2004-06-29 06:33:30 51°14.617 2°54.807 20.963683 0.024092 0.124358 6.735947
2004-06-29 06:33:37 51°14.64 2°54.788 20.989664 0.024092 0.12436 6.769657
2004-06-29 06:33:42 51°14.657 2°54.776 20.952386 0.024092 0.124362 6.769657
2004-06-29 06:33:47 51°14.674 2°54.764 20.934978 0.024092 0.12436 6.769657
2004-06-29 06:33:51 51°14.688 2°54.755 20.994013 0.024092 0.124363 6.769657
2004-06-29 06:34:03 51°14.728 2°54.723 20.981564 0.024092 0.124363 6.769657
2004-06-29 06:34:07 51°14.741 2°54.713 20.981564 0.024092 0.124363 6.769657
2004-06-29 06:34:13 51°14.76 2°54.696 21.023493 0.024092 0.124365 6.735947
2004-06-29 06:34:17 51°14.774 2°54.685 20.960769 0.024092 0.124365 6.769657
2004-06-29 06:34:23 51°14.793 2°54.668 20.95554 0.024092 0.124365 6.769657
2004-06-29 06:34:27 51°14.806 2°54.657 20.96025 0.024092 0.124367 6.769657
2004-06-29 06:34:32 51°14.823 2°54.643 20.940089 0.024092 0.124368 6.769657
2004-06-29 06:34:38 51°14.842 2°54.626 20.940089 0.024092 0.124368 6.769657
2004-06-29 06:34:43 51°14.858 2°54.612 20.958973 0.024092 0.124368 6.769657
2004-06-29 06:34:47 51°14.871 2°54.601 20.965719 0.024092 0.124368 6.769657
2004-06-29 06:34:53 51°14.891 2°54.584 20.96029 0.024092 0.12437 6.769657
2004-06-29 06:34:58 51°14.907 2°54.57 20.970509 0.024092 0.124372 6.769657
2004-06-29 06:35:03 51°14.924 2°54.557 20.953584 0.024092 0.12437 6.769657
2004-06-29 06:35:08 51°14.94 2°54.543 20.953584 0.024092 0.12437 6.769657
2004-06-29 06:35:13 51°14.956 2°54.529 20.945359 0.024092 0.12437 6.769657
2004-06-29 06:35:18 51°14.972 2°54.516 20.943682 0.024092 0.124374 6.803366
2004-06-29 06:35:23 51°14.989 2°54.502 20.974061 0.024092 0.124372 6.769657
2004-06-29 06:35:28 51°15.005 2°54.489 20.999359 0.024092 0.124374 6.769657
2004-06-29 06:35:32 51°15.018 2°54.478 20.956737 0.024092 0.124377 6.769657
2004-06-29 06:35:38 51°15.037 2°54.461 20.956737 0.024092 0.124377 6.769657
2004-06-29 06:35:43 51°15.054 2°54.448 20.942125 0.024092 0.124377 6.769657
2004-06-29 06:35:47 51°15.067 2°54.437 20.950829 0.024092 0.124375 6.769657
2004-06-29 06:35:53 51°15.086 2°54.421 20.939011 0.024092 0.124377 6.769657
2004-06-29 06:35:58 51°15.102 2°54.407 20.956777 0.024092 0.124379 6.769657
2004-06-29 06:36:03 51°15.119 2°54.394 20.941925 0.024092 0.124377 6.769657
2004-06-29 06:36:06 51°15.129 2°54.385 20.941925 0.024092 0.124377 6.769657
2004-06-29 06:36:13 51°15.151 2°54.366 20.956258 0.024092 0.124379 6.769657
2004-06-29 06:36:18 51°15.168 2°54.353 20.954901 0.024092 0.12438 6.769657
2004-06-29 06:36:23 51°15.184 2°54.339 20.951268 0.024092 0.124382 6.769657
2004-06-29 06:36:28 51°15.201 2°54.326 20.987469 0.024092 0.124382 6.769657
2004-06-29 06:36:33 51°15.217 2°54.312 20.951069 0.024092 0.124382 6.769657
2004-06-29 06:36:38 51°15.234 2°54.298 20.951069 0.024092 0.124382 6.769657
2004-06-29 06:36:43 51°15.25 2°54.285 20.941207 0.024092 0.124384 6.769657
2004-06-29 06:36:47 51°15.263 2°54.274 20.967834 0.024092 0.124384 6.769657
2004-06-29 06:36:53 51°15.283 2°54.258 20.975897 0.024092 0.124385 6.769657
2004-06-29 06:36:58 51°15.3 2°54.244 20.937813 0.024092 0.124385 6.769657
2004-06-29 06:37:03 51°15.316 2°54.23 21.004386 0.024092 0.124387 6.769657
2004-06-29 06:37:07 51°15.329 2°54.219 21.004386 0.024092 0.124387 6.769657
2004-06-29 06:37:13 51°15.349 2°54.202 20.934578 0.024092 0.124389 6.769657
2004-06-29 06:37:18 51°15.365 2°54.188 20.970429 0.024092 0.124389 6.769657
2004-06-29 06:37:23 51°15.381 2°54.173 20.929347 0.024092 0.124391 6.769657
2004-06-29 06:37:28 51°15.397 2°54.159 20.942205 0.024092 0.124391 6.769657
2004-06-29 06:37:33 51°15.414 2°54.144 20.957336 0.024092 0.124391 6.769657
2004-06-29 06:37:38 51°15.43 2°54.13 20.957336 0.024092 0.124391 6.769657
2004-06-29 06:37:43 51°15.446 2°54.115 20.951667 0.024092 0.124391 6.769657
2004-06-29 06:37:47 51°15.459 2°54.103 20.935816 0.024092 0.124394 6.735947
2004-06-29 06:37:53 51°15.478 2°54.086 20.941087 0.024092 0.124394 6.769657
2004-06-29 06:37:58 51°15.494 2°54.071 20.936535 0.024092 0.124394 6.769657
2004-06-29 06:38:03 51°15.51 2°54.056 20.976216 0.024092 0.124396 6.769657
2004-06-29 06:38:06 51°15.52 2°54.048 20.976216 0.024092 0.124396 6.769657
2004-06-29 06:38:14 51°15.545 2°54.024 20.937334 0.024092 0.124397 6.769657
2004-06-29 06:38:18 51°15.558 2°54.012 20.957696 0.024092 0.124397 6.769657
2004-06-29 06:38:23 51°15.574 2°53.998 20.943882 0.024092 0.124397 6.769657
2004-06-29 06:38:27 51°15.587 2°53.986 20.942524 0.024092 0.124399 6.735947
2004-06-29 06:38:33 51°15.607 2°53.968 20.940448 0.024092 0.124399 6.769657
2004-06-29 06:38:38 51°15.623 2°53.954 20.940448 0.024092 0.124399 6.769657
2004-06-29 06:38:43 51°15.639 2°53.939 20.933899 0.024092 0.124401 6.769657
2004-06-29 06:38:47 51°15.652 2°53.927 20.929786 0.024092 0.124403 6.769657
2004-06-29 06:38:53 51°15.671 2°53.911 20.931344 0.024092 0.124404 6.769657
2004-06-29 06:38:58 51°15.688 2°53.898 20.953504 0.024092 0.124404 6.769657
2004-06-29 06:39:03 51°15.704 2°53.885 20.956458 0.024092 0.124406 6.769657
2004-06-29 06:39:07 51°15.718 2°53.874 20.956458 0.024092 0.124406 6.769657
2004-06-29 06:39:13 51°15.738 2°53.859 20.941566 0.024092 0.124404 6.769657
2004-06-29 06:39:18 51°15.754 2°53.846 20.931703 0.024092 0.124408 6.735947
2004-06-29 06:39:23 51°15.771 2°53.833 20.930705 0.024092 0.124406 6.769657
2004-06-29 06:39:27 51°15.784 2°53.822 20.990861 0.024092 0.124409 6.769657
2004-06-29 06:39:33 51°15.804 2°53.807 20.940448 0.024092 0.124409 6.769657
2004-06-29 06:39:38 51°15.82 2°53.794 20.940448 0.024092 0.124409 6.769657
2004-06-29 06:39:43 51°15.837 2°53.781 20.938052 0.024092 0.124409 6.769657
2004-06-29 06:39:47 51°15.85 2°53.77 20.934978 0.024092 0.124411 6.769657
2004-06-29 06:39:53 51°15.87 2°53.755 20.938771 0.024092 0.124413 6.769657
2004-06-29 06:39:58 51°15.886 2°53.743 20.946956 0.024092 0.124415 6.769657
2004-06-29 06:40:03 51°15.903 2°53.73 20.952665 0.024092 0.124415 6.769657
2004-06-29 06:40:07 51°15.916 2°53.72 20.952665 0.024092 0.124415 6.769657
2004-06-29 06:40:13 51°15.936 2°53.705 20.940847 0.024092 0.124416 6.769657
2004-06-29 06:40:18 51°15.952 2°53.692 20.943123 0.024092 0.124416 6.769657
2004-06-29 06:40:23 51°15.969 2°53.679 20.953664 0.024092 0.124416 6.735947
2004-06-29 06:40:28 51°15.985 2°53.666 20.953743 0.024092 0.124418 6.769657
2004-06-29 06:40:33 51°16.002 2°53.654 20.95558 0.024092 0.124418 6.769657
2004-06-29 06:40:38 51°16.019 2°53.641 20.95558 0.024092 0.124418 6.769657
2004-06-29 06:40:43 51°16.035 2°53.628 20.993255 0.024092 0.12442 6.735947
2004-06-29 06:40:47 51°16.048 2°53.618 20.938412 0.024092 0.12442 6.769657
2004-06-29 06:40:53 51°16.068 2°53.603 20.937573 0.024092 0.124425 6.769657
2004-06-29 06:40:58 51°16.085 2°53.59 20.94496 0.024092 0.124423 6.735947
2004-06-29 06:41:03 51°16.102 2°53.577 20.936335 0.024092 0.124425 6.769657
2004-06-29 06:41:07 51°16.115 2°53.567 20.936335 0.024092 0.124425 6.769657
2004-06-29 06:41:13 51°16.135 2°53.552 20.931943 0.024092 0.124425 6.769657
2004-06-29 06:41:17 51°16.148 2°53.541 20.98308 0.024092 0.124427 6.769657
2004-06-29 06:41:23 51°16.168 2°53.526 20.937094 0.024092 0.124427 6.735947
2004-06-29 06:41:27 51°16.182 2°53.516 20.952067 0.024092 0.124428 6.769657
2004-06-29 06:41:33 51°16.201 2°53.501 20.964801 0.024092 0.124432 6.769657
2004-06-29 06:41:38 51°16.218 2°53.489 20.964801 0.024092 0.124432 6.769657
2004-06-29 06:41:43 51°16.235 2°53.476 20.964402 0.024092 0.124432 6.769657
2004-06-29 06:41:47 51°16.248 2°53.466 20.927789 0.024092 0.124433 6.769657
2004-06-29 06:41:53 51°16.268 2°53.451 20.940368 0.024092 0.124433 6.769657
2004-06-29 06:41:58 51°16.284 2°53.438 20.961807 0.024092 0.124435 6.769657
2004-06-29 06:42:03 51°16.301 2°53.425 20.936096 0.024092 0.124435 6.735947
2004-06-29 06:42:07 51°16.314 2°53.415 20.936096 0.024092 0.124435 6.735947
2004-06-29 06:42:11 51°16.327 2°53.405 20.932821 0.024092 0.124437 6.769657
2004-06-29 06:42:17 51°16.347 2°53.39 20.959811 0.024092 0.124439 6.769657
2004-06-29 06:42:23 51°16.367 2°53.375 20.955061 0.024092 0.124439 6.769657
2004-06-29 06:42:26 51°16.377 2°53.367 20.935736 0.024092 0.124439 6.769657
2004-06-29 06:42:33 51°16.4 2°53.349 20.956777 0.024092 0.12444 6.769657
2004-06-29 06:42:38 51°16.416 2°53.337 20.956777 0.024092 0.12444 6.769657
2004-06-29 06:42:43 51°16.433 2°53.324 20.964521 0.024092 0.124442 6.769657
2004-06-29 06:42:48 51°16.45 2°53.312 20.97881 0.024092 0.124442 6.769657
2004-06-29 06:42:54 51°16.469 2°53.296 20.934139 0.024092 0.124444 6.735947
2004-06-29 06:42:58 51°16.482 2°53.286 20.941766 0.024092 0.124444 6.769657
2004-06-29 06:43:03 51°16.499 2°53.273 20.968673 0.024092 0.124447 6.735947
2004-06-29 06:43:07 51°16.512 2°53.263 20.968673 0.024092 0.124447 6.735947
2004-06-29 06:43:13 51°16.532 2°53.248 20.946397 0.024092 0.124445 6.769657
2004-06-29 06:43:18 51°16.549 2°53.236 20.945719 0.024092 0.124447 6.769657
2004-06-29 06:43:23 51°16.565 2°53.223 20.972025 0.024092 0.124449 6.769657
2004-06-29 06:43:28 51°16.582 2°53.21 20.932302 0.024092 0.124449 6.769657
2004-06-29 06:43:33 51°16.598 2°53.198 20.939091 0.024092 0.124452 6.769657
2004-06-29 06:43:38 51°16.615 2°53.186 20.939091 0.024092 0.124452 6.769657
2004-06-29 06:43:43 51°16.631 2°53.173 20.938012 0.024092 0.124452 6.769657
2004-06-29 06:43:47 51°16.644 2°53.163 20.927789 0.024092 0.124454 6.769657
2004-06-29 06:43:52 51°16.661 2°53.15 20.940927 0.024092 0.124454 6.769657
2004-06-29 06:43:58 51°16.68 2°53.135 20.9452 0.024092 0.124456 6.769657
2004-06-29 06:44:03 51°16.697 2°53.123 20.941846 0.024092 0.124456 6.769657
2004-06-29 06:44:06 51°16.707 2°53.115 20.941846 0.024092 0.124456 6.769657
2004-06-29 06:44:13 51°16.73 2°53.097 20.95055 0.024092 0.124457 6.769657
2004-06-29 06:44:18 51°16.746 2°53.084 20.934379 0.024092 0.124459 6.769657
2004-06-29 06:44:23 51°16.763 2°53.071 20.937933 0.024092 0.124459 6.769657
2004-06-29 06:44:28 51°16.779 2°53.059 20.931304 0.024092 0.124461 6.769657
2004-06-29 06:44:34 51°16.799 2°53.044 20.954582 0.024092 0.124462 6.769657
2004-06-29 06:44:38 51°16.812 2°53.034 20.954582 0.024092 0.124462 6.769657
2004-06-29 06:44:43 51°16.828 2°53.022 20.945798 0.024092 0.124461 6.769657
2004-06-29 06:44:47 51°16.841 2°53.012 20.937493 0.024092 0.124462 6.735947
2004-06-29 06:44:53 51°16.86 2°52.997 20.935417 0.024092 0.124466 6.769657
2004-06-29 06:44:58 51°16.876 2°52.985 20.931064 0.024092 0.124468 6.769657
2004-06-29 06:45:03 51°16.892 2°52.973 20.951468 0.024092 0.124468 6.769657
2004-06-29 06:45:07 51°16.905 2°52.963 20.951468 0.024092 0.124468 6.769657
2004-06-29 06:45:11 51°16.918 2°52.953 20.939689 0.024092 0.124468 6.769657
2004-06-29 06:45:17 51°16.937 2°52.938 20.952745 0.024092 0.124471 6.769657
2004-06-29 06:45:23 51°16.956 2°52.922 20.940847 0.024092 0.124471 6.769657
2004-06-29 06:45:26 51°16.966 2°52.914 20.930944 0.024092 0.124473 6.769657
2004-06-29 06:45:33 51°16.987 2°52.894 20.973183 0.024092 0.124474 6.735947
2004-06-29 06:45:38 51°17.003 2°52.88 20.973183 0.024092 0.124474 6.735947
2004-06-29 06:45:43 51°17.019 2°52.866 20.93933 0.024092 0.124474 6.735947
2004-06-29 06:45:48 51°17.035 2°52.851 20.934139 0.024092 0.124474 6.769657
2004-06-29 06:45:53 51°17.051 2°52.838 20.941846 0.024092 0.124476 6.769657
2004-06-29 06:45:58 51°17.067 2°52.824 20.930425 0.024092 0.124476 6.769657
2004-06-29 06:46:03 51°17.084 2°52.81 20.943802 0.024092 0.12448 6.735947
2004-06-29 06:46:07 51°17.096 2°52.799 20.943802 0.024092 0.12448 6.735947
2004-06-29 06:46:13 51°17.115 2°52.781 20.944441 0.024092 0.12448 6.769657
2004-06-29 06:46:18 51°17.131 2°52.767 20.950709 0.024092 0.124481 6.769657
2004-06-29 06:46:23 51°17.147 2°52.752 20.963883 0.024092 0.124483 6.769657
2004-06-29 06:46:28 51°17.163 2°52.738 20.924395 0.024092 0.124481 6.735947
2004-06-29 06:46:32 51°17.176 2°52.727 20.947715 0.024092 0.124481 6.735947
2004-06-29 06:46:37 51°17.192 2°52.713 20.947715 0.024092 0.124481 6.735947
2004-06-29 06:46:43 51°17.211 2°52.696 20.966517 0.024092 0.124485 6.769657
2004-06-29 06:46:47 51°17.223 2°52.685 20.925992 0.024092 0.124485 6.735947
2004-06-29 06:46:53 51°17.243 2°52.668 20.938412 0.024092 0.124486 6.769657
2004-06-29 06:46:58 51°17.258 2°52.654 20.954542 0.024092 0.124486 6.769657
2004-06-29 06:47:03 51°17.274 2°52.64 20.939689 0.024092 0.124486 6.769657
2004-06-29 06:47:06 51°17.284 2°52.632 20.939689 0.024092 0.124486 6.769657
2004-06-29 06:47:13 51°17.306 2°52.611 20.958414 0.024092 0.12449 6.735947
2004-06-29 06:47:18 51°17.322 2°52.597 20.929706 0.024092 0.12449 6.769657
2004-06-29 06:47:23 51°17.337 2°52.583 20.93338 0.024092 0.12449 6.769657
2004-06-29 06:47:28 51°17.354 2°52.569 20.932622 0.024092 0.124492 6.769657
2004-06-29 06:47:33 51°17.37 2°52.555 20.937653 0.024092 0.124493 6.735947
2004-06-29 06:47:38 51°17.385 2°52.541 20.937653 0.024092 0.124493 6.735947
2004-06-29 06:47:43 51°17.401 2°52.526 20.956737 0.024092 0.124493 6.769657
2004-06-29 06:47:47 51°17.414 2°52.515 20.929307 0.024092 0.124493 6.769657
2004-06-29 06:47:53 51°17.433 2°52.498 20.93382 0.024092 0.124495 6.769657
2004-06-29 06:47:58 51°17.449 2°52.484 20.956218 0.024092 0.124497 6.769657
2004-06-29 06:48:03 51°17.465 2°52.47 20.943602 0.024092 0.124497 6.769657
2004-06-29 06:48:06 51°17.474 2°52.461 20.943602 0.024092 0.124497 6.769657
2004-06-29 06:48:13 51°17.497 2°52.442 20.949591 0.024092 0.124498 6.769657
2004-06-29 06:48:18 51°17.513 2°52.428 20.9333 0.024092 0.1245 6.735947
2004-06-29 06:48:23 51°17.529 2°52.414 20.937254 0.024092 0.124498 6.735947
2004-06-29 06:48:28 51°17.544 2°52.399 20.967276 0.024092 0.1245 6.769657
2004-06-29 06:48:33 51°17.56 2°52.385 20.944601 0.024092 0.124502 6.769657
2004-06-29 06:48:38 51°17.576 2°52.37 20.944601 0.024092 0.124502 6.769657
2004-06-29 06:48:43 51°17.592 2°52.356 20.933939 0.024092 0.124504 6.735947
2004-06-29 06:48:47 51°17.604 2°52.345 20.953504 0.024092 0.124504 6.769657
2004-06-29 06:48:52 51°17.621 2°52.331 20.947475 0.024092 0.124504 6.769657
2004-06-29 06:48:58 51°17.64 2°52.314 20.9448 0.024092 0.124505 6.769657
2004-06-29 06:49:03 51°17.655 2°52.3 20.931064 0.024092 0.124507 6.769657
2004-06-29 06:49:06 51°17.665 2°52.291 20.931064 0.024092 0.124507 6.769657
2004-06-29 06:49:14 51°17.691 2°52.269 20.937933 0.024092 0.124505 6.769657
2004-06-29 06:49:18 51°17.703 2°52.258 20.963484 0.024092 0.124507 6.769657
2004-06-29 06:49:23 51°17.719 2°52.244 20.938851 0.024092 0.12451 6.735947
2004-06-29 06:49:27 51°17.732 2°52.233 20.936176 0.024092 0.124509 6.769657
2004-06-29 06:49:33 51°17.751 2°52.216 20.932741 0.024092 0.12451 6.769657
2004-06-29 06:49:38 51°17.767 2°52.201 20.932741 0.024092 0.12451 6.769657
2004-06-29 06:49:43 51°17.783 2°52.187 20.948234 0.024092 0.124512 6.769657
2004-06-29 06:49:48 51°17.798 2°52.173 20.92727 0.024092 0.124512 6.735947
2004-06-29 06:49:53 51°17.814 2°52.159 20.941925 0.024092 0.124512 6.735947
2004-06-29 06:49:57 51°17.827 2°52.147 20.961328 0.024092 0.124514 6.769657
2004-06-29 06:50:03 51°17.846 2°52.131 20.938851 0.024092 0.124514 6.735947
2004-06-29 06:50:08 51°17.862 2°52.117 20.938851 0.024092 0.124514 6.735947
2004-06-29 06:50:13 51°17.878 2°52.103 20.940768 0.024092 0.124516 6.769657
2004-06-29 06:50:18 51°17.894 2°52.089 20.961927 0.024092 0.124516 6.769657
2004-06-29 06:50:23 51°17.909 2°52.074 20.931463 0.024092 0.124517 6.735947
2004-06-29 06:50:27 51°17.922 2°52.063 20.96061 0.024092 0.124519 6.769657
2004-06-29 06:50:33 51°17.941 2°52.047 20.940688 0.024092 0.124519 6.769657
2004-06-29 06:50:38 51°17.957 2°52.033 20.940688 0.024092 0.124519 6.769657
2004-06-29 06:50:43 51°17.973 2°52.018 20.960729 0.024092 0.124521 6.769657
2004-06-29 06:50:47 51°17.986 2°52.007 20.941287 0.024092 0.124521 6.769657
2004-06-29 06:50:53 51°18.005 2°51.99 20.948034 0.024092 0.124522 6.769657
2004-06-29 06:50:58 51°18.02 2°51.976 20.945719 0.024092 0.124524 6.769657
2004-06-29 06:51:03 51°18.036 2°51.962 20.976056 0.024092 0.124526 6.769657
2004-06-29 06:51:07 51°18.049 2°51.951 20.976056 0.024092 0.124526 6.769657
2004-06-29 06:51:11 51°18.061 2°51.939 20.951268 0.024092 0.124524 6.769657
2004-06-29 06:51:17 51°18.08 2°51.922 20.945559 0.024092 0.124526 6.769657
2004-06-29 06:51:22 51°18.096 2°51.908 20.942844 0.024092 0.124528 6.769657
2004-06-29 06:51:28 51°18.115 2°51.891 20.941606 0.024092 0.124528 6.769657
2004-06-29 06:51:34 51°18.134 2°51.874 20.955939 0.024092 0.124529 6.769657
2004-06-29 06:51:38 51°18.147 2°51.863 20.955939 0.024092 0.124529 6.769657
2004-06-29 06:51:43 51°18.163 2°51.849 20.944281 0.024092 0.124529 6.735947
2004-06-29 06:51:48 51°18.179 2°51.835 20.957416 0.024092 0.124529 6.769657
2004-06-29 06:51:53 51°18.194 2°51.82 20.948713 0.024092 0.124531 6.769657
2004-06-29 06:51:58 51°18.21 2°51.805 20.969032 0.024092 0.124531 6.769657
2004-06-29 06:52:03 51°18.224 2°51.787 20.957416 0.024092 0.124534 6.735947
2004-06-29 06:52:08 51°18.238 2°51.77 20.957416 0.024092 0.124534 6.735947
2004-06-29 06:52:13 51°18.251 2°51.75 20.952146 0.024092 0.124534 6.735947
2004-06-29 06:52:18 51°18.265 2°51.732 20.940169 0.024092 0.124536 6.769657
2004-06-29 06:52:23 51°18.278 2°51.711 20.956099 0.024092 0.124536 6.735947
2004-06-29 06:52:27 51°18.288 2°51.696 20.950949 0.024092 0.124538 6.735947
2004-06-29 06:52:33 51°18.303 2°51.672 20.938571 0.024092 0.12454 6.769657
2004-06-29 06:52:38 51°18.316 2°51.651 20.938571 0.024092 0.12454 6.769657
2004-06-29 06:52:43 51°18.329 2°51.631 20.941087 0.024092 0.124541 6.769657
2004-06-29 06:52:47 51°18.339 2°51.614 20.945359 0.024092 0.124541 6.769657
2004-06-29 06:52:53 51°18.354 2°51.59 20.938851 0.024092 0.124543 6.735947
2004-06-29 06:52:58 51°18.368 2°51.57 20.938651 0.024092 0.124543 6.735947
2004-06-29 06:53:03 51°18.38 2°51.549 20.963963 0.024092 0.124543 6.769657
2004-06-29 06:53:07 51°18.391 2°51.533 20.963963 0.024092 0.124543 6.769657
2004-06-29 06:53:11 51°18.401 2°51.517 20.93925 0.024092 0.124545 6.769657
2004-06-29 06:53:17 51°18.416 2°51.492 20.94472 0.024092 0.124546 6.735947
2004-06-29 06:53:22 51°18.429 2°51.472 20.951907 0.024092 0.124546 6.769657
2004-06-29 06:53:28 51°18.444 2°51.447 20.940608 0.024092 0.124548 6.769657
2004-06-29 06:53:33 51°18.457 2°51.427 20.959771 0.024092 0.12455 6.769657
2004-06-29 06:53:38 51°18.47 2°51.407 20.959771 0.024092 0.12455 6.769657
2004-06-29 06:53:43 51°18.483 2°51.387 20.957696 0.024092 0.12455 6.769657
2004-06-29 06:53:48 51°18.496 2°51.367 20.951987 0.024092 0.124552 6.769657
2004-06-29 06:53:53 51°18.509 2°51.346 20.951987 0.024092 0.124553 6.769657
2004-06-29 06:53:58 51°18.522 2°51.326 20.948553 0.024092 0.124553 6.735947
2004-06-29 06:54:03 51°18.535 2°51.306 20.947036 0.024092 0.124555 6.769657
2004-06-29 06:54:08 51°18.548 2°51.285 20.947036 0.024092 0.124555 6.769657
2004-06-29 06:54:13 51°18.561 2°51.265 20.942085 0.024092 0.124557 6.735947
2004-06-29 06:54:18 51°18.574 2°51.245 20.949711 0.024092 0.124555 6.769657
2004-06-29 06:54:23 51°18.587 2°51.225 20.951588 0.024092 0.124557 6.803366
2004-06-29 06:54:27 51°18.597 2°51.209 20.94488 0.024092 0.124558 6.769657
2004-06-29 06:54:33 51°18.613 2°51.184 20.959372 0.024092 0.12456 6.769657
2004-06-29 06:54:38 51°18.626 2°51.164 20.959372 0.024092 0.12456 6.769657
2004-06-29 06:54:43 51°18.639 2°51.144 20.957017 0.024092 0.124558 6.735947
2004-06-29 06:54:46 51°18.646 2°51.132 20.964601 0.024092 0.12456 6.769657
2004-06-29 06:54:53 51°18.664 2°51.103 20.946477 0.024092 0.124562 6.769657
2004-06-29 06:54:58 51°18.677 2°51.083 20.945958 0.024092 0.124564 6.769657
2004-06-29 06:55:03 51°18.69 2°51.063 20.948314 0.024092 0.124562 6.735947
2004-06-29 06:55:08 51°18.703 2°51.042 20.948314 0.024092 0.124562 6.735947
2004-06-29 06:55:14 51°18.719 2°51.018 20.945798 0.024092 0.124564 6.769657
2004-06-29 06:55:17 51°18.726 2°51.006 20.968872 0.024092 0.124565 6.769657
2004-06-29 06:55:23 51°18.742 2°50.982 20.950749 0.024092 0.124567 6.769657
2004-06-29 06:55:27 51°18.753 2°50.966 20.951148 0.024092 0.124569 6.769657
2004-06-29 06:55:31 51°18.763 2°50.95 20.952785 0.024092 0.124569 6.769657
2004-06-29 06:55:38 51°18.781 2°50.922 20.952785 0.024092 0.124569 6.769657
2004-06-29 06:55:43 51°18.795 2°50.902 20.957616 0.024092 0.124569 6.769657
2004-06-29 06:55:47 51°18.805 2°50.886 20.955021 0.024092 0.12457 6.735947
2004-06-29 06:55:53 51°18.821 2°50.862 20.949911 0.024092 0.12457 6.769657
2004-06-29 06:55:58 51°18.834 2°50.842 20.952745 0.024092 0.124574 6.735947
2004-06-29 06:56:03 51°18.847 2°50.822 20.971347 0.024092 0.124574 6.769657
2004-06-29 06:56:06 51°18.855 2°50.81 20.971347 0.024092 0.124574 6.769657
2004-06-29 06:56:12 51°18.871 2°50.786 20.954502 0.024092 0.124576 6.769657
2004-06-29 06:56:17 51°18.884 2°50.766 20.963364 0.024092 0.124576 6.769657
2004-06-29 06:56:23 51°18.9 2°50.742 20.956937 0.024092 0.124576 6.769657
2004-06-29 06:56:27 51°18.911 2°50.726 20.956258 0.024092 0.124576 6.769657
2004-06-29 06:56:33 51°18.926 2°50.702 20.968433 0.024092 0.124577 6.769657
2004-06-29 06:56:38 51°18.94 2°50.683 20.968433 0.024092 0.124577 6.769657
2004-06-29 06:56:43 51°18.953 2°50.663 20.952665 0.024092 0.124577 6.769657
2004-06-29 06:56:47 51°18.963 2°50.647 20.957456 0.024092 0.124579 6.735947
2004-06-29 06:56:53 51°18.979 2°50.623 20.958813 0.023988 0.124051 6.769657
2004-06-29 06:56:57 51°18.99 2°50.607 20.953664 0.024092 0.124579 6.735947
2004-06-29 06:57:03 51°19.006 2°50.584 20.969591 0.024092 0.124583 6.769657
2004-06-29 06:57:07 51°19.016 2°50.568 20.969591 0.024092 0.124583 6.769657
2004-06-29 06:57:13 51°19.032 2°50.544 20.958694 0.024092 0.124583 6.769657
2004-06-29 06:57:18 51°19.045 2°50.525 20.964641 0.024092 0.124584 6.769657
2004-06-29 06:57:22 51°19.056 2°50.509 20.950669 0.024092 0.124584 6.769657
2004-06-29 06:57:28 51°19.072 2°50.485 20.967116 0.024092 0.124586 6.803366
2004-06-29 06:57:33 51°19.085 2°50.465 20.957376 0.024092 0.124586 6.735947
2004-06-29 06:57:38 51°19.098 2°50.446 20.957376 0.024092 0.124586 6.735947
2004-06-29 06:57:43 51°19.112 2°50.426 20.951947 0.024092 0.124588 6.769657
2004-06-29 06:57:47 51°19.123 2°50.411 20.965919 0.024092 0.124588 6.769657
2004-06-29 06:57:53 51°19.139 2°50.387 20.972863 0.024092 0.124586 6.769657
2004-06-29 06:57:57 51°19.149 2°50.372 20.95047 0.024092 0.124588 6.735947
2004-06-29 06:58:03 51°19.165 2°50.348 20.950989 0.024092 0.124591 6.735947
2004-06-29 06:58:07 51°19.176 2°50.333 20.950989 0.024092 0.124591 6.735947
2004-06-29 06:58:13 51°19.192 2°50.309 20.949232 0.024092 0.124591 6.769657
2004-06-29 06:58:18 51°19.205 2°50.29 20.981484 0.024092 0.124591 6.769657
2004-06-29 06:58:21 51°19.213 2°50.278 20.95554 0.024092 0.124593 6.735947
2004-06-29 06:58:27 51°19.229 2°50.254 20.952146 0.024092 0.124593 6.769657
2004-06-29 06:58:33 51°19.245 2°50.231 20.964442 0.024092 0.124595 6.769657
2004-06-29 06:58:38 51°19.258 2°50.212 20.964442 0.024092 0.124595 6.769657
2004-06-29 06:58:42 51°19.269 2°50.196 20.956258 0.024092 0.124595 6.769657
2004-06-29 06:58:47 51°19.282 2°50.177 20.959931 0.023988 0.124066 6.735947
2004-06-29 06:58:53 51°19.298 2°50.153 20.968034 0.024092 0.124596 6.769657
2004-06-29 06:58:58 51°19.311 2°50.134 20.95566 0.023988 0.124068 6.769657
2004-06-29 06:59:03 51°19.324 2°50.114 20.961887 0.024092 0.1246 6.769657
2004-06-29 06:59:07 51°19.335 2°50.099 20.961887 0.024092 0.1246 6.769657
2004-06-29 06:59:13 51°19.35 2°50.075 20.961568 0.023988 0.12407 6.735947
2004-06-29 06:59:18 51°19.363 2°50.056 20.982641 0.024092 0.124601 6.803366
2004-06-29 06:59:23 51°19.376 2°50.036 20.961129 0.024092 0.124601 6.769657
2004-06-29 06:59:26 51°19.384 2°50.025 20.95566 0.023988 0.124073 6.769657
2004-06-29 06:59:33 51°19.402 2°49.998 20.958853 0.024092 0.124603 6.735947
2004-06-29 06:59:37 51°19.412 2°49.981 20.958853 0.024092 0.124603 6.735947
2004-06-29 06:59:43 51°19.427 2°49.956 20.96544 0.024092 0.124605 6.769657
2004-06-29 06:59:48 51°19.439 2°49.934 20.971267 0.024092 0.124607 6.769657
2004-06-29 06:59:53 51°19.451 2°49.913 20.967196 0.024092 0.124607 6.769657
2004-06-29 06:59:58 51°19.463 2°49.891 20.963124 0.024092 0.124607 6.769657
2004-06-29 07:00:03 51°19.474 2°49.869 20.968513 0.023988 0.124078 6.769657
2004-06-29 07:00:05 51°19.479 2°49.86 20.968513 0.023988 0.124078 6.769657
2004-06-29 07:00:13 51°19.497 2°49.825 20.959731 0.024092 0.124608 6.769657
2004-06-29 07:00:17 51°19.506 2°49.807 20.967874 0.024092 0.12461 6.769657
2004-06-29 07:00:23 51°19.52 2°49.78 20.956059 0.023988 0.12408 6.769657
2004-06-29 07:00:28 51°19.532 2°49.758 20.957855 0.024092 0.124612 6.769657
2004-06-29 07:00:33 51°19.544 2°49.737 20.982002 0.023988 0.12408 6.735947
2004-06-29 07:00:38 51°19.556 2°49.715 20.982002 0.023988 0.12408 6.735947
2004-06-29 07:00:43 51°19.567 2°49.693 20.9654 0.024092 0.124613 6.769657
2004-06-29 07:00:48 51°19.579 2°49.671 20.96987 0.024092 0.124613 6.769657
2004-06-29 07:00:53 51°19.59 2°49.649 20.964681 0.024092 0.124615 6.735947
2004-06-29 07:00:58 51°19.602 2°49.627 20.960889 0.024092 0.124615 6.769657
2004-06-29 07:01:03 51°19.614 2°49.605 20.967595 0.024092 0.124613 6.769657
2004-06-29 07:01:07 51°19.623 2°49.587 20.967595 0.024092 0.124613 6.769657
2004-06-29 07:01:13 51°19.637 2°49.56 20.966517 0.023988 0.124087 6.769657
2004-06-29 07:01:18 51°19.648 2°49.538 20.96045 0.023988 0.124087 6.735947
2004-06-29 07:01:23 51°19.659 2°49.516 20.990582 0.024092 0.124617 6.735947
2004-06-29 07:01:26 51°19.665 2°49.501 20.989305 0.024092 0.124619 6.769657
2004-06-29 07:01:34 51°19.678 2°49.461 20.981883 0.023988 0.12409 6.769657
2004-06-29 07:01:38 51°19.684 2°49.44 20.981883 0.023988 0.12409 6.769657
2004-06-29 07:01:43 51°19.691 2°49.414 20.978131 0.023988 0.124092 6.769657
2004-06-29 07:01:48 51°19.697 2°49.387 20.969591 0.023988 0.124092 6.769657
2004-06-29 07:01:53 51°19.702 2°49.36 20.961488 0.024092 0.124622 6.769657
2004-06-29 07:01:58 51°19.708 2°49.332 20.963324 0.023988 0.124092 6.735947
2004-06-29 07:02:03 51°19.713 2°49.305 20.963524 0.023988 0.124094 6.769657
2004-06-29 07:02:08 51°19.718 2°49.277 20.963524 0.023988 0.124094 6.769657
2004-06-29 07:02:10 51°19.72 2°49.266 20.966837 0.024092 0.124624 6.769657
2004-06-29 07:02:18 51°19.728 2°49.222 20.958095 0.024092 0.124625 6.735947
2004-06-29 07:02:23 51°19.733 2°49.194 20.96061 0.023988 0.124095 6.769657
2004-06-29 07:02:28 51°19.738 2°49.166 20.958893 0.023988 0.124097 6.769657
2004-06-29 07:02:33 51°19.743 2°49.138 20.962925 0.023988 0.124097 6.769657
2004-06-29 07:02:37 51°19.747 2°49.116 20.962925 0.023988 0.124097 6.769657
2004-06-29 07:02:43 51°19.753 2°49.082 20.964681 0.023988 0.124097 6.803366
2004-06-29 07:02:48 51°19.757 2°49.054 20.973622 0.023988 0.124099 6.735947
2004-06-29 07:02:52 51°19.761 2°49.032 20.985315 0.023988 0.124099 6.769657
2004-06-29 07:02:57 51°19.765 2°49.003 20.974779 0.023988 0.124097 6.735947
2004-06-29 07:03:03 51°19.768 2°48.969 20.975617 0.023988 0.124101 6.769657
2004-06-29 07:03:06 51°19.77 2°48.952 20.975617 0.023988 0.124101 6.769657
2004-06-29 07:03:13 51°19.774 2°48.911 20.971945 0.023988 0.124101 6.769657
2004-06-29 07:03:17 51°19.776 2°48.888 20.986312 0.023988 0.124102 6.769657
2004-06-29 07:03:23 51°19.778 2°48.853 20.963963 0.023988 0.124102 6.769657
2004-06-29 07:03:28 51°19.781 2°48.825 20.962965 0.023988 0.124104 6.735947
2004-06-29 07:03:33 51°19.783 2°48.795 20.977972 0.023988 0.124104 6.769657
2004-06-29 07:03:37 51°19.785 2°48.772 20.977972 0.023988 0.124104 6.769657
2004-06-29 07:03:43 51°19.788 2°48.738 20.96995 0.023988 0.124104 6.769657
2004-06-29 07:03:48 51°19.79 2°48.708 20.973781 0.023988 0.124106 6.735947
2004-06-29 07:03:53 51°19.793 2°48.68 20.979808 0.023988 0.124106 6.769657
2004-06-29 07:03:57 51°19.795 2°48.657 20.968952 0.024092 0.124636 6.735947
2004-06-29 07:04:03 51°19.799 2°48.622 20.981085 0.023988 0.124107 6.769657
2004-06-29 07:04:08 51°19.802 2°48.593 20.981085 0.023988 0.124107 6.769657
2004-06-29 07:04:13 51°19.806 2°48.564 20.975697 0.023988 0.124107 6.769657
2004-06-29 07:04:26 51°19.814 2°48.489 20.971107 0.023988 0.124109 6.769657
2004-06-29 07:04:30 51°19.816 2°48.466 20.976735 0.023988 0.124109 6.769657
2004-06-29 07:04:33 51°19.818 2°48.449 20.975777 0.023988 0.124111 6.769657
2004-06-29 07:04:41 51°19.824 2°48.403 20.96971 0.023988 0.124111 6.769657
2004-06-29 07:04:46 51°19.827 2°48.375 20.968872 0.023988 0.124113 6.735947
2004-06-29 07:04:50 51°19.83 2°48.351 20.968872 0.023988 0.124113 6.735947
2004-06-29 07:04:56 51°19.834 2°48.317 20.987469 0.023988 0.124113 6.769657
2004-06-29 07:05:00 51°19.837 2°48.294 20.98284 0.023988 0.124114 6.769657
2004-06-29 07:05:05 51°19.84 2°48.265 20.975976 0.023988 0.124114 6.769657
2004-06-29 07:05:10 51°19.843 2°48.236 20.975218 0.023988 0.124116 6.735947
2004-06-29 07:05:14 51°19.846 2°48.213 20.97881 0.023988 0.124118 6.769657
2004-06-29 07:05:20 51°19.85 2°48.178 20.97881 0.023988 0.124118 6.769657
2004-06-29 07:05:25 51°19.853 2°48.15 20.975058 0.023988 0.124118 6.735947
2004-06-29 07:05:30 51°19.857 2°48.121 20.974739 0.023988 0.124116 6.735947
2004-06-29 07:05:36 51°19.861 2°48.087 20.971945 0.023988 0.124118 6.735947
2004-06-29 07:05:40 51°19.863 2°48.064 20.970708 0.023988 0.124119 6.769657
2004-06-29 07:05:44 51°19.866 2°48.041 20.974979 0.023988 0.124121 6.769657
2004-06-29 07:05:49 51°19.869 2°48.012 20.974979 0.023988 0.124121 6.769657
2004-06-29 07:05:55 51°19.873 2°47.978 20.983718 0.023988 0.124119 6.769657
2004-06-29 07:06:00 51°19.877 2°47.95 20.974619 0.023988 0.124121 6.735947
2004-06-29 07:06:05 51°19.88 2°47.921 20.985394 0.023988 0.124123 6.769657
2004-06-29 07:06:10 51°19.884 2°47.893 20.986312 0.023988 0.124123 6.769657
2004-06-29 07:06:14 51°19.887 2°47.87 20.977972 0.023988 0.124125 6.769657
2004-06-29 07:06:20 51°19.891 2°47.836 20.977972 0.023988 0.124125 6.769657
2004-06-29 07:06:25 51°19.894 2°47.807 20.981125 0.023988 0.124125 6.735947
2004-06-29 07:06:30 51°19.898 2°47.778 20.975697 0.023988 0.124125 6.735947
2004-06-29 07:06:36 51°19.902 2°47.744 20.984916 0.023988 0.124125 6.769657
2004-06-29 07:06:40 51°19.905 2°47.721 20.984995 0.023988 0.124128 6.769657
2004-06-29 07:06:45 51°19.908 2°47.693 20.98715 0.023988 0.124128 6.735947
2004-06-29 07:06:49 51°19.911 2°47.67 20.98715 0.023988 0.124128 6.735947
2004-06-29 07:06:55 51°19.916 2°47.636 20.988906 0.023988 0.124128 6.769657
2004-06-29 07:07:00 51°19.919 2°47.607 20.98727 0.023988 0.124128 6.769657
2004-06-29 07:07:05 51°19.923 2°47.579 20.999359 0.023988 0.12413 6.769657
2004-06-29 07:07:10 51°19.926 2°47.55 20.981324 0.023988 0.124131 6.735947
2004-06-29 07:07:14 51°19.929 2°47.528 20.991859 0.023988 0.12413 6.735947
2004-06-29 07:07:20 51°19.933 2°47.493 20.991859 0.023988 0.12413 6.735947
2004-06-29 07:07:25 51°19.937 2°47.465 20.979967 0.023988 0.124131 6.769657
2004-06-29 07:07:30 51°19.941 2°47.437 20.975697 0.023988 0.124133 6.735947
2004-06-29 07:07:36 51°19.946 2°47.403 20.986153 0.023988 0.124133 6.769657
2004-06-29 07:07:40 51°19.949 2°47.38 20.985594 0.023988 0.124135 6.769657
2004-06-29 07:07:45 51°19.953 2°47.352 21.000796 0.023988 0.124136 6.769657
2004-06-29 07:07:49 51°19.955 2°47.329 21.000796 0.023988 0.124136 6.769657
2004-06-29 07:07:55 51°19.96 2°47.296 20.980167 0.023988 0.124135 6.769657
2004-06-29 07:08:00 51°19.964 2°47.267 20.976296 0.023988 0.124136 6.769657
2004-06-29 07:08:05 51°19.967 2°47.239 20.994173 0.023988 0.124136 6.735947
2004-06-29 07:08:10 51°19.971 2°47.211 20.983918 0.023988 0.124138 6.735947
2004-06-29 07:08:13 51°19.973 2°47.194 20.976894 0.023988 0.124138 6.769657
2004-06-29 07:08:20 51°19.978 2°47.155 20.976894 0.023988 0.124138 6.769657
2004-06-29 07:08:25 51°19.982 2°47.127 20.979568 0.023988 0.12414 6.735947
2004-06-29 07:08:30 51°19.986 2°47.098 20.984237 0.023988 0.124142 6.735947
2004-06-29 07:08:36 51°19.991 2°47.065 20.997205 0.023988 0.124143 6.769657
2004-06-29 07:08:40 51°19.993 2°47.042 21.018308 0.023988 0.124142 6.735947
2004-06-29 07:08:45 51°19.997 2°47.014 20.985235 0.023988 0.124145 6.735947
2004-06-29 07:08:49 51°20 2°46.992 20.985235 0.023988 0.124145 6.735947
2004-06-29 07:08:56 51°20.005 2°46.952 20.989584 0.023988 0.124145 6.735947
2004-06-29 07:09:00 51°20.008 2°46.93 20.984397 0.023988 0.124145 6.735947
2004-06-29 07:09:05 51°20.012 2°46.901 20.988587 0.023988 0.124147 6.769657
2004-06-29 07:09:10 51°20.015 2°46.874 20.98284 0.023988 0.124147 6.769657
2004-06-29 07:09:15 51°20.019 2°46.846 20.989265 0.023988 0.124148 6.735947
2004-06-29 07:09:19 51°20.021 2°46.824 20.989265 0.023988 0.124148 6.735947
2004-06-29 07:09:25 51°20.026 2°46.79 20.987669 0.023988 0.124148 6.769657
2004-06-29 07:09:29 51°20.028 2°46.767 20.99529 0.023988 0.124148 6.769657
2004-06-29 07:09:36 51°20.034 2°46.728 20.998202 0.023988 0.12415 6.735947
2004-06-29 07:09:40 51°20.037 2°46.706 20.990502 0.023988 0.12415 6.769657
2004-06-29 07:09:45 51°20.04 2°46.678 21.004227 0.023988 0.124152 6.769657
2004-06-29 07:09:49 51°20.043 2°46.656 21.004227 0.023988 0.124152 6.769657
2004-06-29 07:09:56 51°20.049 2°46.617 20.980406 0.023988 0.124152 6.769657
2004-06-29 07:10:00 51°20.052 2°46.595 21.005025 0.023988 0.124154 6.769657
2004-06-29 07:10:05 51°20.055 2°46.567 20.986671 0.023988 0.124154 6.769657
2004-06-29 07:10:09 51°20.058 2°46.544 20.998442 0.023988 0.124154 6.769657
2004-06-29 07:10:15 51°20.062 2°46.511 20.987589 0.023988 0.124155 6.769657
2004-06-29 07:10:20 51°20.066 2°46.483 20.987589 0.023988 0.124155 6.769657
2004-06-29 07:10:25 51°20.07 2°46.455 20.988946 0.023988 0.124157 6.769657
2004-06-29 07:10:30 51°20.073 2°46.427 20.99118 0.023988 0.124157 6.735947
2004-06-29 07:10:36 51°20.078 2°46.394 21.003708 0.023988 0.124157 6.769657
2004-06-29 07:10:40 51°20.081 2°46.371 21.004626 0.023988 0.124157 6.769657
2004-06-29 07:10:45 51°20.084 2°46.343 20.9992 0.023988 0.124157 6.735947
2004-06-29 07:10:50 51°20.087 2°46.315 20.9992 0.023988 0.124157 6.735947
2004-06-29 07:10:54 51°20.089 2°46.293 21.012484 0.023988 0.124159 6.769657
2004-06-29 07:11:00 51°20.091 2°46.259 21.000716 0.023988 0.124159 6.769657
2004-06-29 07:11:05 51°20.093 2°46.231 21.008216 0.023988 0.124164 6.769657
2004-06-29 07:11:10 51°20.094 2°46.203 20.984397 0.023988 0.12416 6.769657
2004-06-29 07:11:15 51°20.095 2°46.175 20.990422 0.023988 0.124164 6.769657
2004-06-29 07:11:20 51°20.097 2°46.146 20.990422 0.023988 0.124164 6.769657
2004-06-29 07:11:23 51°20.098 2°46.129 20.997684 0.023988 0.124164 6.769657
2004-06-29 07:11:30 51°20.1 2°46.09 20.99545 0.023988 0.124164 6.735947
2004-06-29 07:11:34 51°20.101 2°46.068 21.002551 0.023988 0.124166 6.769657
2004-06-29 07:11:40 51°20.103 2°46.033 20.997963 0.023988 0.124166 6.735947
2004-06-29 07:11:45 51°20.104 2°46.005 21.017151 0.023988 0.124166 6.769657
2004-06-29 07:11:49 51°20.105 2°45.982 21.017151 0.023988 0.124166 6.769657
2004-06-29 07:11:55 51°20.106 2°45.948 20.994452 0.023988 0.124167 6.769657
2004-06-29 07:12:00 51°20.108 2°45.92 20.995609 0.023988 0.124167 6.769657
2004-06-29 07:12:05 51°20.109 2°45.891 21.023014 0.023988 0.124169 6.769657
2004-06-29 07:12:10 51°20.11 2°45.863 20.995928 0.023988 0.124171 6.735947
2004-06-29 07:12:14 51°20.112 2°45.84 21.001873 0.023988 0.124167 6.769657
2004-06-29 07:12:20 51°20.113 2°45.806 21.001873 0.023988 0.124167 6.769657
2004-06-29 07:12:25 51°20.115 2°45.778 20.991938 0.023988 0.124169 6.735947
2004-06-29 07:12:30 51°20.116 2°45.749 20.994691 0.023988 0.124171 6.769657
2004-06-29 07:12:36 51°20.117 2°45.714 21.014 0.023988 0.124171 6.735947
2004-06-29 07:12:40 51°20.119 2°45.692 21.002631 0.023988 0.124172 6.769657
2004-06-29 07:12:45 51°20.12 2°45.663 21.021498 0.023988 0.124172 6.769657
2004-06-29 07:12:50 51°20.122 2°45.635 21.021498 0.023988 0.124172 6.769657
2004-06-29 07:12:56 51°20.124 2°45.601 20.993933 0.023988 0.124172 6.769657
2004-06-29 07:13:00 51°20.125 2°45.578 20.991619 0.023988 0.124174 6.769657
2004-06-29 07:13:04 51°20.126 2°45.555 20.992098 0.023988 0.124174 6.769657
2004-06-29 07:13:10 51°20.127 2°45.521 21.008535 0.023988 0.124176 6.735947
2004-06-29 07:13:14 51°20.129 2°45.498 20.994492 0.023988 0.124176 6.769657
2004-06-29 07:13:20 51°20.131 2°45.464 20.994492 0.023988 0.124176 6.769657
2004-06-29 07:13:25 51°20.133 2°45.435 21.009373 0.023988 0.124178 6.769657
2004-06-29 07:13:30 51°20.134 2°45.407 21.001115 0.023988 0.124178 6.769657
2004-06-29 07:13:36 51°20.136 2°45.372 20.994093 0.023988 0.124178 6.735947
2004-06-29 07:13:40 51°20.137 2°45.349 21.013082 0.023988 0.124179 6.769657
2004-06-29 07:13:45 51°20.139 2°45.321 20.996447 0.023988 0.124181 6.769657
2004-06-29 07:13:50 51°20.141 2°45.292 20.996447 0.023988 0.124181 6.769657
2004-06-29 07:13:54 51°20.142 2°45.269 21.007298 0.023988 0.124181 6.735947
2004-06-29 07:14:00 51°20.144 2°45.235 21.009133 0.023988 0.124181 6.769657
2004-06-29 07:14:05 51°20.145 2°45.207 21.00662 0.023988 0.124183 6.735947
2004-06-29 07:14:10 51°20.147 2°45.178 21.015556 0.023988 0.124183 6.735947
2004-06-29 07:14:15 51°20.148 2°45.149 20.991739 0.023988 0.124184 6.735947
2004-06-29 07:14:20 51°20.15 2°45.121 20.991739 0.023988 0.124184 6.735947
2004-06-29 07:14:23 51°20.151 2°45.104 21.005862 0.023988 0.124186 6.769657
2004-06-29 07:14:30 51°20.153 2°45.063 21.01041 0.023988 0.124184 6.769657
2004-06-29 07:14:34 51°20.155 2°45.04 21.010649 0.023988 0.124186 6.769657
2004-06-29 07:14:40 51°20.157 2°45.006 20.997764 0.023988 0.124188 6.769657
2004-06-29 07:14:45 51°20.158 2°44.977 21.010051 0.023988 0.124186 6.769657
2004-06-29 07:14:49 51°20.16 2°44.954 21.010051 0.023988 0.124186 6.769657
2004-06-29 07:14:55 51°20.161 2°44.92 21.013402 0.023988 0.12419 6.769657
2004-06-29 07:15:00 51°20.163 2°44.891 21.001953 0.023988 0.12419 6.769657
2004-06-29 07:15:05 51°20.165 2°44.862 21.008734 0.023988 0.12419 6.735947
2004-06-29 07:15:10 51°20.166 2°44.834 21.012245 0.023988 0.12419 6.769657
2004-06-29 07:15:14 51°20.167 2°44.81 21.006979 0.023988 0.12419 6.735947
2004-06-29 07:15:20 51°20.169 2°44.776 21.006979 0.023988 0.12419 6.735947
2004-06-29 07:15:24 51°20.17 2°44.753 21.017151 0.023988 0.124193 6.769657
2004-06-29 07:15:30 51°20.172 2°44.719 21.007219 0.023988 0.124191 6.769657
2004-06-29 07:15:34 51°20.174 2°44.696 21.014638 0.023988 0.124193 6.735947
2004-06-29 07:15:40 51°20.175 2°44.661 20.993455 0.023988 0.124195 6.769657
2004-06-29 07:15:44 51°20.177 2°44.639 21.012245 0.023988 0.124195 6.769657
2004-06-29 07:15:49 51°20.178 2°44.61 21.012245 0.023988 0.124195 6.769657
2004-06-29 07:15:55 51°20.18 2°44.575 21.014 0.023988 0.124195 6.769657
2004-06-29 07:16:00 51°20.182 2°44.547 21.020581 0.023988 0.124196 6.735947
2004-06-29 07:16:05 51°20.183 2°44.518 21.002431 0.023988 0.124196 6.735947
2004-06-29 07:16:10 51°20.185 2°44.49 21.029435 0.023988 0.124198 6.769657
2004-06-29 07:16:15 51°20.186 2°44.461 21.003469 0.023988 0.124196 6.769657
2004-06-29 07:16:19 51°20.188 2°44.438 21.003469 0.023988 0.124196 6.769657
2004-06-29 07:16:25 51°20.19 2°44.404 21.001953 0.023988 0.124198 6.769657
2004-06-29 07:16:29 51°20.191 2°44.381 21.013322 0.023988 0.124198 6.769657
2004-06-29 07:16:36 51°20.193 2°44.341 21.008974 0.023988 0.1242 6.769657
2004-06-29 07:16:40 51°20.195 2°44.318 21.015635 0.023988 0.1242 6.769657
2004-06-29 07:16:45 51°20.196 2°44.289 21.012045 0.023988 0.1242 6.735947
2004-06-29 07:16:50 51°20.198 2°44.261 21.012045 0.023988 0.1242 6.735947
2004-06-29 07:16:56 51°20.2 2°44.226 21.017829 0.023988 0.124202 6.735947
2004-06-29 07:17:00 51°20.201 2°44.204 21.010809 0.023988 0.124202 6.769657
2004-06-29 07:17:05 51°20.203 2°44.175 21.002471 0.023988 0.124202 6.769657
2004-06-29 07:17:10 51°20.205 2°44.147 21.012205 0.023988 0.124203 6.769657
2004-06-29 07:17:14 51°20.207 2°44.124 21.012723 0.023988 0.124203 6.769657
2004-06-29 07:17:20 51°20.21 2°44.09 21.012723 0.023988 0.124203 6.769657
2004-06-29 07:17:25 51°20.213 2°44.062 21.015635 0.023988 0.124203 6.769657
2004-06-29 07:17:30 51°20.216 2°44.034 21.036015 0.023988 0.124205 6.769657
2004-06-29 07:17:36 51°20.219 2°44 21.004945 0.023988 0.124205 6.769657
2004-06-29 07:17:40 51°20.221 2°43.977 21.020422 0.023988 0.124207 6.769657
2004-06-29 07:17:45 51°20.224 2°43.949 21.01759 0.023988 0.124207 6.769657
2004-06-29 07:17:50 51°20.226 2°43.921 21.01759 0.023988 0.124207 6.769657
2004-06-29 07:17:56 51°20.23 2°43.887 21.021818 0.023988 0.124208 6.769657
2004-06-29 07:18:00 51°20.232 2°43.864 21.004546 0.023988 0.124208 6.769657
2004-06-29 07:18:05 51°20.235 2°43.836 21.002431 0.023988 0.124208 6.769657
2004-06-29 07:18:10 51°20.238 2°43.808 21.023094 0.023988 0.12421 6.769657
2004-06-29 07:18:14 51°20.241 2°43.786 21.01747 0.023988 0.12421 6.769657
2004-06-29 07:18:20 51°20.246 2°43.753 21.01747 0.023988 0.12421 6.769657
2004-06-29 07:18:25 51°20.249 2°43.725 21.012125 0.023988 0.124212 6.735947
2004-06-29 07:18:29 51°20.252 2°43.703 21.013721 0.023988 0.12421 6.735947
2004-06-29 07:18:36 51°20.259 2°43.664 21.005862 0.023988 0.124212 6.735947
2004-06-29 07:18:40 51°20.263 2°43.642 21.035696 0.023988 0.124212 6.769657
2004-06-29 07:18:45 51°20.268 2°43.615 21.018427 0.023988 0.124214 6.769657
2004-06-29 07:18:50 51°20.273 2°43.588 21.018427 0.023988 0.124214 6.769657
2004-06-29 07:18:56 51°20.28 2°43.555 21.046222 0.023988 0.124214 6.769657
2004-06-29 07:19:00 51°20.284 2°43.533 21.010809 0.023988 0.124215 6.769657
2004-06-29 07:19:05 51°20.289 2°43.506 21.022894 0.023988 0.124214 6.769657
2004-06-29 07:19:10 51°20.295 2°43.479 21.020342 0.023988 0.124215 6.735947
2004-06-29 07:19:14 51°20.299 2°43.457 21.026005 0.023988 0.124217 6.735947
2004-06-29 07:19:19 51°20.304 2°43.43 21.026005 0.023988 0.124217 6.735947
2004-06-29 07:19:25 51°20.311 2°43.397 21.012484 0.023988 0.124217 6.769657
2004-06-29 07:19:30 51°20.316 2°43.37 21.014917 0.023988 0.124217 6.769657
2004-06-29 07:19:34 51°20.321 2°43.348 21.011806 0.023988 0.124217 6.769657
2004-06-29 07:19:40 51°20.327 2°43.316 21.013402 0.023988 0.124217 6.769657
2004-06-29 07:19:44 51°20.331 2°43.294 21.010889 0.023988 0.124219 6.769657
2004-06-29 07:19:50 51°20.338 2°43.261 21.010889 0.023988 0.124219 6.769657
2004-06-29 07:19:54 51°20.342 2°43.239 21.015476 0.023988 0.12422 6.735947
2004-06-29 07:20:00 51°20.348 2°43.207 21.016234 0.023988 0.124222 6.735947
2004-06-29 07:20:05 51°20.353 2°43.179 21.017231 0.023988 0.124222 6.735947
2004-06-29 07:20:10 51°20.358 2°43.152 21.025247 0.023988 0.124222 6.735947
2004-06-29 07:20:14 51°20.362 2°43.13 21.016912 0.023988 0.124222 6.769657
2004-06-29 07:20:19 51°20.368 2°43.103 21.016912 0.023988 0.124222 6.769657
2004-06-29 07:20:25 51°20.374 2°43.071 21.015476 0.023988 0.124224 6.735947
2004-06-29 07:20:30 51°20.379 2°43.043 21.020581 0.023988 0.124226 6.769657
2004-06-29 07:20:36 51°20.386 2°43.011 21.016912 0.023988 0.124224 6.769657
2004-06-29 07:20:40 51°20.39 2°42.989 21.019903 0.023988 0.124226 6.769657
2004-06-29 07:20:45 51°20.395 2°42.962 21.014997 0.023988 0.124227 6.735947
2004-06-29 07:20:50 51°20.4 2°42.935 21.014997 0.023988 0.124227 6.735947
2004-06-29 07:20:54 51°20.404 2°42.913 21.01037 0.023988 0.124227 6.735947
2004-06-29 07:21:00 51°20.411 2°42.88 21.032625 0.023988 0.124227 6.769657
2004-06-29 07:21:05 51°20.416 2°42.853 21.029196 0.023988 0.124227 6.735947
2004-06-29 07:21:09 51°20.42 2°42.831 21.021259 0.023988 0.124227 6.769657
2004-06-29 07:21:15 51°20.426 2°42.799 21.024769 0.023988 0.124229 6.769657
2004-06-29 07:21:20 51°20.431 2°42.771 21.024769 0.023988 0.124229 6.769657
2004-06-29 07:21:25 51°20.436 2°42.744 21.016912 0.023988 0.124227 6.769657
2004-06-29 07:21:30 51°20.442 2°42.717 21.019584 0.023988 0.124229 6.769657
2004-06-29 07:21:36 51°20.448 2°42.684 21.028438 0.023988 0.124231 6.769657
2004-06-29 07:21:39 51°20.451 2°42.668 21.028278 0.023988 0.124231 6.769657
2004-06-29 07:21:45 51°20.457 2°42.636 21.021498 0.023988 0.124231 6.735947
2004-06-29 07:21:49 51°20.462 2°42.614 21.021498 0.023988 0.124231 6.735947
2004-06-29 07:21:56 51°20.469 2°42.576 21.045305 0.023988 0.124231 6.769657
2004-06-29 07:22:00 51°20.473 2°42.554 21.021498 0.023988 0.124231 6.769657
2004-06-29 07:22:05 51°20.478 2°42.527 21.024849 0.023988 0.124232 6.769657
2004-06-29 07:22:10 51°20.483 2°42.5 21.045983 0.023988 0.124234 6.735947
2004-06-29 07:22:15 51°20.489 2°42.473 21.016553 0.023988 0.124234 6.769657
2004-06-29 07:22:20 51°20.494 2°42.446 21.016553 0.023988 0.124234 6.769657
2004-06-29 07:22:25 51°20.499 2°42.419 21.026922 0.023988 0.124234 6.735947
2004-06-29 07:22:30 51°20.504 2°42.392 21.019584 0.023988 0.124234 6.735947
2004-06-29 07:22:35 51°20.509 2°42.365 21.025407 0.023988 0.124234 6.735947
2004-06-29 07:22:40 51°20.514 2°42.338 21.041477 0.023988 0.124236 6.769657
2004-06-29 07:22:45 51°20.52 2°42.311 21.02106 0.023988 0.124236 6.769657
2004-06-29 07:22:50 51°20.525 2°42.283 21.02106 0.023988 0.124236 6.769657
2004-06-29 07:22:56 51°20.531 2°42.251 21.02102 0.023988 0.124238 6.769657
2004-06-29 07:23:00 51°20.535 2°42.23 21.023852 0.023988 0.124238 6.769657
2004-06-29 07:23:05 51°20.54 2°42.203 21.022655 0.023988 0.124239 6.769657
2004-06-29 07:23:10 51°20.545 2°42.176 21.032107 0.023988 0.124239 6.769657
2004-06-29 07:23:14 51°20.55 2°42.154 21.04371 0.023988 0.124239 6.735947
2004-06-29 07:23:20 51°20.556 2°42.122 21.04371 0.023988 0.124239 6.735947
2004-06-29 07:23:25 51°20.561 2°42.095 21.035855 0.023988 0.124239 6.735947
2004-06-29 07:23:29 51°20.565 2°42.074 21.055511 0.023988 0.124241 6.735947
2004-06-29 07:23:36 51°20.573 2°42.036 21.02098 0.023988 0.124241 6.769657
2004-06-29 07:23:40 51°20.577 2°42.015 21.037012 0.023988 0.124241 6.735947
2004-06-29 07:23:45 51°20.582 2°41.988 21.038048 0.023988 0.124243 6.769657
2004-06-29 07:23:50 51°20.587 2°41.961 21.038048 0.023988 0.124243 6.769657
2004-06-29 07:23:56 51°20.594 2°41.928 21.030512 0.023988 0.124243 6.735947
2004-06-29 07:24:00 51°20.598 2°41.907 21.019065 0.023988 0.124241 6.769657
2004-06-29 07:24:05 51°20.604 2°41.88 21.018986 0.023988 0.124244 6.769657
2004-06-29 07:24:09 51°20.608 2°41.859 21.04064 0.023988 0.124243 6.769657
2004-06-29 07:24:15 51°20.614 2°41.826 21.026085 0.023988 0.124244 6.735947
2004-06-29 07:24:20 51°20.619 2°41.799 21.026085 0.023988 0.124244 6.735947
2004-06-29 07:24:25 51°20.624 2°41.772 21.029036 0.023988 0.124244 6.735947
2004-06-29 07:24:30 51°20.63 2°41.745 21.032585 0.023988 0.124244 6.735947
2004-06-29 07:24:36 51°20.636 2°41.713 21.021419 0.023988 0.124246 6.735947
2004-06-29 07:24:40 51°20.641 2°41.692 21.016473 0.023988 0.124248 6.769657
2004-06-29 07:24:45 51°20.649 2°41.667 21.007977 0.023988 0.124248 6.769657
2004-06-29 07:24:49 51°20.655 2°41.647 21.007977 0.023988 0.124248 6.769657
2004-06-29 07:24:56 51°20.668 2°41.613 21.017071 0.023988 0.124248 6.769657
2004-06-29 07:25:00 51°20.676 2°41.595 21.012245 0.023988 0.124246 6.735947
2004-06-29 07:25:05 51°20.688 2°41.573 21.028916 0.023988 0.124246 6.769657
2004-06-29 07:25:10 51°20.7 2°41.553 21.032705 0.023988 0.124248 6.735947
2004-06-29 07:25:15 51°20.713 2°41.533 21.011407 0.023988 0.124248 6.735947
2004-06-29 07:25:18 51°20.721 2°41.522 21.011407 0.023988 0.124248 6.735947
2004-06-29 07:25:25 51°20.74 2°41.498 21.037769 0.023988 0.12425 6.769657
2004-06-29 07:25:30 51°20.755 2°41.48 21.019065 0.023988 0.12425 6.735947
2004-06-29 07:25:35 51°20.77 2°41.466 21.016313 0.023988 0.124251 6.735947
2004-06-29 07:25:40 51°20.786 2°41.452 21.019903 0.023988 0.124251 6.769657
2004-06-29 07:25:46 51°20.807 2°41.439 21.054116 0.023988 0.124251 6.735947
2004-06-29 07:25:50 51°20.82 2°41.432 21.054116 0.023988 0.124251 6.735947
2004-06-29 07:25:56 51°20.842 2°41.422 21.014319 0.023988 0.124251 6.735947
2004-06-29 07:26:00 51°20.856 2°41.416 21.043391 0.023988 0.124253 6.735947
2004-06-29 07:26:05 51°20.874 2°41.41 21.026922 0.023988 0.124253 6.769657
2004-06-29 07:26:10 51°20.892 2°41.403 21.05575 0.023988 0.124255 6.735947
2004-06-29 07:26:14 51°20.907 2°41.398 21.043949 0.023988 0.124253 6.769657
2004-06-29 07:26:20 51°20.929 2°41.391 21.043949 0.023988 0.124253 6.769657
2004-06-29 07:26:25 51°20.947 2°41.385 21.037171 0.023988 0.124255 6.735947
2004-06-29 07:26:30 51°20.965 2°41.379 21.032625 0.023988 0.124256 6.735947
2004-06-29 07:26:35 51°20.984 2°41.374 21.031668 0.023988 0.124258 6.769657
2004-06-29 07:26:38 51°20.995 2°41.37 21.034938 0.023988 0.124258 6.735947
2004-06-29 07:26:45 51°21.021 2°41.362 21.021818 0.023988 0.124258 6.735947
2004-06-29 07:26:50 51°21.039 2°41.359 21.021818 0.023988 0.124258 6.735947
2004-06-29 07:26:56 51°21.062 2°41.355 21.048455 0.023988 0.124262 6.735947
2004-06-29 07:27:00 51°21.077 2°41.354 21.014239 0.023988 0.124262 6.769657
2004-06-29 07:27:05 51°21.096 2°41.352 21.06157 0.023988 0.124263 6.735947
2004-06-29 07:27:10 51°21.114 2°41.351 21.025168 0.023988 0.124265 6.769657
2004-06-29 07:27:16 51°21.137 2°41.351 21.035456 0.023988 0.124265 6.735947
2004-06-29 07:27:20 51°21.152 2°41.35 21.035456 0.023988 0.124265 6.735947
2004-06-29 07:27:23 51°21.163 2°41.35 21.042713 0.023988 0.124268 6.769657
2004-06-29 07:27:30 51°21.189 2°41.349 21.051923 0.023988 0.124268 6.735947
2004-06-29 07:27:34 51°21.204 2°41.348 21.027361 0.023988 0.12427 6.769657
2004-06-29 07:27:40 51°21.227 2°41.347 21.038766 0.023988 0.124274 6.735947
2004-06-29 07:27:45 51°21.246 2°41.347 21.02098 0.023988 0.124275 6.769657
2004-06-29 07:27:50 51°21.264 2°41.347 21.02098 0.023988 0.124275 6.769657
2004-06-29 07:27:54 51°21.279 2°41.347 21.044787 0.023988 0.124275 6.735947
2004-06-29 07:28:00 51°21.302 2°41.348 21.03434 0.023988 0.124277 6.769657
2004-06-29 07:28:05 51°21.321 2°41.347 21.028597 0.023988 0.124279 6.735947
2004-06-29 07:28:10 51°21.34 2°41.348 21.042793 0.023988 0.12428 6.769657
2004-06-29 07:28:14 51°21.355 2°41.347 21.058939 0.023988 0.124284 6.735947
2004-06-29 07:28:20 51°21.378 2°41.347 21.058939 0.023988 0.124284 6.735947
2004-06-29 07:28:25 51°21.397 2°41.346 21.049531 0.023988 0.124286 6.735947
2004-06-29 07:28:30 51°21.416 2°41.346 21.027162 0.023988 0.124289 6.735947
2004-06-29 07:28:36 51°21.439 2°41.346 21.054395 0.023988 0.124291 6.735947
2004-06-29 07:28:40 51°21.454 2°41.345 21.033662 0.023988 0.124293 6.769657
2004-06-29 07:28:45 51°21.473 2°41.345 21.032346 0.023988 0.124294 6.769657
2004-06-29 07:28:50 51°21.492 2°41.345 21.032346 0.023988 0.124294 6.769657
2004-06-29 07:28:56 51°21.515 2°41.344 21.051923 0.023988 0.124298 6.735947
2004-06-29 07:29:00 51°21.53 2°41.345 21.029834 0.023988 0.124299 6.735947
2004-06-29 07:29:05 51°21.549 2°41.344 21.053478 0.023988 0.124303 6.735947
2004-06-29 07:29:10 51°21.568 2°41.345 21.059458 0.023988 0.124305 6.735947
2004-06-29 07:29:14 51°21.583 2°41.344 21.036294 0.023988 0.124306 6.769657
2004-06-29 07:29:20 51°21.606 2°41.344 21.036294 0.023988 0.124306 6.769657
2004-06-29 07:29:25 51°21.625 2°41.343 21.050448 0.023988 0.12431 6.769657
2004-06-29 07:29:30 51°21.644 2°41.344 21.031788 0.023988 0.124313 6.769657
2004-06-29 07:29:36 51°21.666 2°41.343 21.066672 0.023988 0.124315 6.769657
2004-06-29 07:29:40 51°21.681 2°41.343 21.026843 0.023988 0.124318 6.769657
2004-06-29 07:29:45 51°21.7 2°41.343 21.067948 0.023988 0.124323 6.769657
2004-06-29 07:29:49 51°21.715 2°41.343 21.067948 0.023988 0.124323 6.769657
2004-06-29 07:29:55 51°21.738 2°41.343 21.02106 0.023988 0.124318 6.735947
2004-06-29 07:30:00 51°21.757 2°41.344 21.0406 0.023988 0.124322 6.735947
2004-06-29 07:30:05 51°21.775 2°41.343 21.051764 0.023988 0.124327 6.769657
2004-06-29 07:30:09 51°21.79 2°41.344 21.05599 0.023988 0.12433 6.769657
2004-06-29 07:30:15 51°21.813 2°41.343 21.041557 0.023988 0.124335 6.769657
2004-06-29 07:30:21 51°21.836 2°41.345 21.041557 0.023988 0.124335 6.769657
2004-06-29 07:30:26 51°21.855 2°41.343 21.064082 0.023988 0.124339 6.769657
2004-06-29 07:30:29 51°21.866 2°41.344 21.044029 0.023988 0.124342 6.735947
2004-06-29 07:30:35 51°21.888 2°41.345 21.060893 0.023988 0.124346 6.735947
2004-06-29 07:30:40 51°21.907 2°41.344 21.035935 0.023988 0.124349 6.735947
2004-06-29 07:30:45 51°21.926 2°41.346 21.039962 0.023988 0.124353 6.735947
2004-06-29 07:30:49 51°21.941 2°41.345 21.039962 0.023988 0.124353 6.735947
2004-06-29 07:30:55 51°21.964 2°41.346 21.047697 0.023988 0.124354 6.769657
2004-06-29 07:31:00 51°21.983 2°41.345 21.053079 0.023988 0.124358 6.735947
2004-06-29 07:31:05 51°22.002 2°41.346 21.036613 0.023988 0.124361 6.769657
2004-06-29 07:31:10 51°22.02 2°41.345 21.039723 0.023988 0.124365 6.769657
2004-06-29 07:31:13 51°22.032 2°41.346 21.041198 0.023988 0.12437 6.735947
2004-06-29 07:31:20 51°22.058 2°41.347 21.041198 0.023988 0.12437 6.735947
2004-06-29 07:31:25 51°22.077 2°41.348 21.038367 0.023988 0.124372 6.735947
2004-06-29 07:31:29 51°22.092 2°41.348 21.047976 0.023988 0.124373 6.735947
2004-06-29 07:31:32 51°22.103 2°41.349 21.049053 0.023988 0.124377 6.769657
2004-06-29 07:31:40 51°22.134 2°41.349 21.043192 0.023988 0.12438 6.735947
2004-06-29 07:31:45 51°22.153 2°41.35 21.043391 0.023988 0.124384 6.769657
2004-06-29 07:31:49 51°22.168 2°41.349 21.043391 0.023988 0.124384 6.769657
2004-06-29 07:31:55 51°22.191 2°41.35 21.039045 0.023988 0.124387 6.769657
2004-06-29 07:32:00 51°22.209 2°41.349 21.048056 0.023988 0.124389 6.735947
2004-06-29 07:32:05 51°22.228 2°41.35 21.062686 0.023988 0.124392 6.735947
2004-06-29 07:32:10 51°22.247 2°41.349 21.050488 0.023988 0.124396 6.735947
2004-06-29 07:32:15 51°22.266 2°41.35 21.054913 0.023988 0.124399 6.769657
2004-06-29 07:32:20 51°22.285 2°41.349 21.054913 0.023988 0.124399 6.769657
2004-06-29 07:32:25 51°22.304 2°41.35 21.057744 0.023988 0.124401 6.769657
2004-06-29 07:32:30 51°22.323 2°41.349 21.059737 0.023988 0.124406 6.769657
2004-06-29 07:32:36 51°22.346 2°41.35 21.03434 0.023988 0.124408 6.735947
2004-06-29 07:32:40 51°22.361 2°41.349 21.050209 0.023988 0.124409 6.769657
2004-06-29 07:32:45 51°22.38 2°41.351 21.06165 0.023988 0.124413 6.769657
2004-06-29 07:32:50 51°22.4 2°41.351 21.06165 0.023988 0.124413 6.769657
2004-06-29 07:32:56 51°22.422 2°41.352 21.052202 0.023988 0.124415 6.735947
2004-06-29 07:33:00 51°22.438 2°41.351 21.059936 0.023988 0.124418 6.769657
2004-06-29 07:33:05 51°22.457 2°41.352 21.037131 0.023988 0.124421 6.769657
2004-06-29 07:33:09 51°22.472 2°41.351 21.042474 0.023988 0.124425 6.735947
2004-06-29 07:33:15 51°22.495 2°41.351 21.059418 0.023988 0.124428 6.769657
2004-06-29 07:33:20 51°22.514 2°41.352 21.059418 0.023988 0.124428 6.769657
2004-06-29 07:33:25 51°22.533 2°41.353 21.035177 0.023988 0.12443 6.769657
2004-06-29 07:33:30 51°22.552 2°41.353 21.062328 0.023988 0.124434 6.769657
2004-06-29 07:33:36 51°22.575 2°41.355 21.038527 0.023988 0.124435 6.735947
2004-06-29 07:33:40 51°22.59 2°41.354 21.058501 0.023988 0.124439 6.735947
2004-06-29 07:33:45 51°22.609 2°41.355 21.052681 0.023988 0.124442 6.735947
2004-06-29 07:33:49 51°22.624 2°41.354 21.052681 0.023988 0.124442 6.735947
2004-06-29 07:33:54 51°22.643 2°41.355 21.046541 0.023988 0.124446 6.735947
2004-06-29 07:34:00 51°22.665 2°41.355 21.049451 0.023988 0.124449 6.735947
2004-06-29 07:34:04 51°22.681 2°41.356 21.066832 0.023988 0.124451 6.769657
2004-06-29 07:34:10 51°22.703 2°41.356 21.041637 0.023988 0.124454 6.769657
2004-06-29 07:34:16 51°22.726 2°41.356 21.061212 0.023988 0.124458 6.735947
2004-06-29 07:34:20 51°22.742 2°41.357 21.061212 0.023988 0.124458 6.735947
2004-06-29 07:34:25 51°22.761 2°41.356 21.063324 0.023988 0.124461 6.769657
2004-06-29 07:34:30 51°22.78 2°41.357 21.054833 0.023988 0.124463 6.735947
2004-06-29 07:34:35 51°22.799 2°41.356 21.060454 0.023988 0.124466 6.735947
2004-06-29 07:34:40 51°22.818 2°41.356 21.049053 0.023988 0.12447 6.769657
2004-06-29 07:34:45 51°22.837 2°41.356 21.045544 0.023988 0.124473 6.735947
2004-06-29 07:34:49 51°22.852 2°41.357 21.045544 0.023988 0.124473 6.735947
2004-06-29 07:34:55 51°22.875 2°41.357 21.065317 0.023988 0.124475 6.769657
2004-06-29 07:35:00 51°22.894 2°41.357 21.052123 0.023988 0.124478 6.769657
2004-06-29 07:35:05 51°22.913 2°41.357 21.069104 0.023988 0.12448 6.735947
2004-06-29 07:35:09 51°22.928 2°41.358 21.05288 0.023988 0.124482 6.735947
2004-06-29 07:35:15 51°22.951 2°41.359 21.051405 0.023988 0.124487 6.769657
2004-06-29 07:35:20 51°22.971 2°41.36 21.051405 0.023988 0.124487 6.769657
2004-06-29 07:35:24 51°22.986 2°41.359 21.057983 0.023988 0.12449 6.769657
2004-06-29 07:35:30 51°23.009 2°41.36 21.060016 0.023988 0.124492 6.735947
2004-06-29 07:35:36 51°23.032 2°41.359 21.054156 0.023988 0.124497 6.769657
2004-06-29 07:35:40 51°23.047 2°41.36 21.048295 0.023988 0.124499 6.769657
2004-06-29 07:35:45 51°23.066 2°41.359 21.047538 0.023988 0.124501 6.769657
2004-06-29 07:35:49 51°23.081 2°41.361 21.047538 0.023988 0.124501 6.769657
2004-06-29 07:35:56 51°23.108 2°41.361 21.065078 0.023988 0.124504 6.735947
2004-06-29 07:36:00 51°23.124 2°41.362 21.06157 0.023988 0.124506 6.735947
2004-06-29 07:36:05 51°23.143 2°41.362 21.077274 0.023988 0.124509 6.769657
2004-06-29 07:36:10 51°23.162 2°41.362 21.054794 0.023988 0.124513 6.769657
2004-06-29 07:36:22 51°23.208 2°41.363 21.076995 0.023988 0.124521 6.769657
2004-06-29 07:36:28 51°23.231 2°41.364 21.048136 0.023988 0.124523 6.735947
2004-06-29 07:36:32 51°23.246 2°41.363 21.048136 0.023988 0.124523 6.735947
2004-06-29 07:36:37 51°23.265 2°41.364 21.070499 0.023884 0.123996 6.769657
2004-06-29 07:36:42 51°23.284 2°41.363 21.056827 0.023988 0.12453 6.735947
2004-06-29 07:36:46 51°23.299 2°41.364 21.05571 0.023988 0.124534 6.769657
2004-06-29 07:36:53 51°23.325 2°41.365 21.060335 0.023988 0.124537 6.735947
2004-06-29 07:36:57 51°23.34 2°41.365 21.054674 0.023988 0.12454 6.769657
2004-06-29 07:37:02 51°23.359 2°41.365 21.054674 0.023988 0.12454 6.769657
2004-06-29 07:37:08 51°23.382 2°41.367 21.050049 0.023884 0.12401 6.769657
2004-06-29 07:37:12 51°23.397 2°41.368 21.053558 0.023988 0.124547 6.769657
2004-06-29 07:37:17 51°23.416 2°41.368 21.066154 0.023884 0.124017 6.735947
2004-06-29 07:37:22 51°23.435 2°41.37 21.057385 0.023988 0.124553 6.769657
2004-06-29 07:37:26 51°23.45 2°41.369 21.065676 0.023988 0.124556 6.769657
2004-06-29 07:37:32 51°23.473 2°41.369 21.065676 0.023988 0.124556 6.769657
2004-06-29 07:37:37 51°23.492 2°41.37 21.056548 0.023988 0.124558 6.769657
2004-06-29 07:37:40 51°23.503 2°41.369 21.073249 0.023884 0.124029 6.769657
2004-06-29 07:37:48 51°23.533 2°41.367 21.074365 0.023988 0.124565 6.735947
2004-06-29 07:37:50 51°23.541 2°41.365 21.076357 0.023988 0.124568 6.735947
2004-06-29 07:37:56 51°23.563 2°41.361 21.080422 0.023988 0.124573 6.735947
2004-06-29 07:38:00 51°23.578 2°41.357 21.080422 0.023988 0.124573 6.735947
2004-06-29 07:38:07 51°23.604 2°41.35 21.064998 0.023988 0.124575 6.769657
2004-06-29 07:38:12 51°23.622 2°41.344 21.065995 0.023988 0.124578 6.735947
2004-06-29 07:38:16 51°23.637 2°41.339 21.062168 0.023884 0.12405 6.769657
2004-06-29 07:38:22 51°23.658 2°41.33 21.073687 0.023884 0.124053 6.735947
2004-06-29 07:38:26 51°23.673 2°41.325 21.05288 0.023988 0.124587 6.735947
2004-06-29 07:38:32 51°23.695 2°41.317 21.05288 0.023988 0.124587 6.735947
2004-06-29 07:38:37 51°23.713 2°41.311 21.068506 0.023884 0.12406 6.735947
2004-06-29 07:38:42 51°23.732 2°41.304 21.077991 0.023988 0.124594 6.735947
2004-06-29 07:38:47 51°23.75 2°41.298 21.051405 0.023988 0.124596 6.735947
2004-06-29 07:38:49 51°23.757 2°41.295 21.084846 0.023988 0.124599 6.769657
2004-06-29 07:38:57 51°23.787 2°41.284 21.060933 0.023884 0.12407 6.769657
2004-06-29 07:39:00 51°23.797 2°41.28 21.060933 0.023884 0.12407 6.769657
2004-06-29 07:39:07 51°23.823 2°41.27 21.058023 0.023988 0.124606 6.735947
2004-06-29 07:39:12 51°23.841 2°41.264 21.059896 0.023884 0.124077 6.769657
2004-06-29 07:39:17 51°23.859 2°41.258 21.061012 0.023884 0.124081 6.735947
2004-06-29 07:39:30 51°23.907 2°41.242 21.071336 0.023884 0.124086 6.769657
2004-06-29 07:39:36 51°23.929 2°41.235 21.072531 0.023884 0.124091 6.735947
2004-06-29 07:39:40 51°23.944 2°41.23 21.069861 0.023884 0.124094 6.769657
2004-06-29 07:39:45 51°23.962 2°41.223 21.066991 0.023884 0.124094 6.735947
2004-06-29 07:39:50 51°23.981 2°41.217 21.066991 0.023884 0.124094 6.735947
2004-06-29 07:39:54 51°23.995 2°41.211 21.071854 0.023884 0.124099 6.769657
2004-06-29 07:40:00 51°24.018 2°41.205 21.054674 0.023884 0.124101 6.769657
2004-06-29 07:40:05 51°24.036 2°41.199 21.082574 0.023884 0.124106 6.735947
2004-06-29 07:40:10 51°24.054 2°41.193 21.074165 0.023884 0.124108 6.769657
2004-06-29 07:40:16 51°24.076 2°41.186 21.060255 0.023884 0.124112 6.735947
2004-06-29 07:40:20 51°24.09 2°41.182 21.060255 0.023884 0.124112 6.735947
2004-06-29 07:40:25 51°24.109 2°41.176 21.081339 0.023884 0.124113 6.735947
2004-06-29 07:40:29 51°24.124 2°41.171 21.062527 0.023884 0.124115 6.769657
2004-06-29 07:40:34 51°24.142 2°41.165 21.078191 0.023884 0.12412 6.735947
2004-06-29 07:40:40 51°24.164 2°41.158 21.068825 0.023884 0.124122 6.735947
2004-06-29 07:40:44 51°24.178 2°41.152 21.079267 0.023884 0.124127 6.735947
2004-06-29 07:40:50 51°24.2 2°41.146 21.079267 0.023884 0.124127 6.735947
2004-06-29 07:40:55 51°24.219 2°41.14 21.070937 0.023884 0.124129 6.735947
2004-06-29 07:41:00 51°24.237 2°41.134 21.066991 0.023884 0.124132 6.769657
2004-06-29 07:41:05 51°24.255 2°41.129 21.092496 0.023884 0.124136 6.769657
2004-06-29 07:41:10 51°24.274 2°41.123 21.07285 0.023884 0.124137 6.769657
2004-06-29 07:41:15 51°24.292 2°41.116 21.088472 0.023884 0.124144 6.769657
2004-06-29 07:41:20 51°24.31 2°41.11 21.088472 0.023884 0.124144 6.769657
2004-06-29 07:41:25 51°24.329 2°41.104 21.074086 0.023884 0.124146 6.735947
2004-06-29 07:41:30 51°24.347 2°41.098 21.077832 0.023884 0.124149 6.735947
2004-06-29 07:41:34 51°24.362 2°41.093 21.070778 0.023884 0.124151 6.735947
2004-06-29 07:41:40 51°24.384 2°41.086 21.095245 0.023884 0.124155 6.735947
2004-06-29 07:41:45 51°24.402 2°41.079 21.064161 0.023884 0.124158 6.769657
2004-06-29 07:41:50 51°24.421 2°41.073 21.064161 0.023884 0.124158 6.769657
2004-06-29 07:41:55 51°24.439 2°41.067 21.073328 0.023884 0.124161 6.769657
2004-06-29 07:42:01 51°24.461 2°41.06 21.079864 0.023884 0.124163 6.735947
2004-06-29 07:42:05 51°24.476 2°41.055 21.073886 0.023884 0.124167 6.735947
2004-06-29 07:42:10 51°24.494 2°41.048 21.075002 0.023884 0.12417 6.735947
2004-06-29 07:42:15 51°24.512 2°41.043 21.09142 0.023884 0.124174 6.735947
2004-06-29 07:42:20 51°24.53 2°41.036 21.09142 0.023884 0.124174 6.735947
2004-06-29 07:42:23 51°24.542 2°41.034 21.074763 0.023884 0.124175 6.735947
2004-06-29 07:42:30 51°24.567 2°41.024 21.09154 0.023884 0.124179 6.769657
2004-06-29 07:42:36 51°24.589 2°41.018 21.06452 0.023884 0.12418 6.735947
2004-06-29 07:42:40 51°24.604 2°41.012 21.097994 0.023884 0.124184 6.769657
2004-06-29 07:42:45 51°24.622 2°41.006 21.069024 0.023884 0.124186 6.769657
2004-06-29 07:42:50 51°24.641 2°41 21.069024 0.023884 0.124186 6.769657
2004-06-29 07:42:56 51°24.663 2°40.993 21.069981 0.023884 0.124187 6.735947
2004-06-29 07:43:00 51°24.678 2°40.989 21.081179 0.023884 0.124193 6.769657
2004-06-29 07:43:05 51°24.696 2°40.982 21.088511 0.023884 0.124194 6.769657
2004-06-29 07:43:09 51°24.711 2°40.979 21.071774 0.023884 0.124198 6.735947
2004-06-29 07:43:16 51°24.737 2°40.97 21.082295 0.023884 0.124199 6.769657
2004-06-29 07:43:20 51°24.752 2°40.966 21.082295 0.023884 0.124199 6.769657
2004-06-29 07:43:25 51°24.77 2°40.959 21.097317 0.023884 0.124203 6.769657
2004-06-29 07:43:29 51°24.785 2°40.955 21.072013 0.023884 0.124205 6.735947
2004-06-29 07:43:36 51°24.811 2°40.946 21.073607 0.023884 0.12421 6.735947
2004-06-29 07:43:40 51°24.825 2°40.941 21.09389 0.023884 0.124211 6.769657
2004-06-29 07:43:45 51°24.844 2°40.936 21.09405 0.023884 0.124217 6.769657
2004-06-29 07:43:50 51°24.862 2°40.929 21.09405 0.023884 0.124217 6.769657
2004-06-29 07:43:55 51°24.881 2°40.924 21.083012 0.023884 0.124218 6.769657
2004-06-29 07:44:00 51°24.899 2°40.916 21.089826 0.023884 0.12422 6.735947
2004-06-29 07:44:03 51°24.91 2°40.913 21.072412 0.023884 0.124224 6.769657
2004-06-29 07:44:09 51°24.932 2°40.906 21.0811 0.023884 0.124227 6.769657
2004-06-29 07:44:16 51°24.958 2°40.898 21.08616 0.023884 0.12423 6.735947
2004-06-29 07:44:20 51°24.972 2°40.892 21.08616 0.023884 0.12423 6.735947
2004-06-29 07:44:25 51°24.991 2°40.887 21.080103 0.023884 0.124232 6.769657